GFSSW_prec_pwat_084.txt.gz
Precipitable_Water
0.41 0.40 0.40 0.41 0.43 0.45 0.46 0.45 0.44 0.40 0.39 0.34 0.33 0.34 0.34 0.35 0.34 0.30 0.17 0.18 0.27 0.54 0.77 0.86 0.88 0.95 1.11 1.00 1.17 1.19 0.73 0.58 0.54 0.45 0.44 0.51 0.74 0.97 1.10 1.03 1.14 1.18 1.13 1.05 1.10
0.47 0.46 0.46 0.45 0.44 0.42 0.41 0.42 0.44 0.45 0.44 0.40 0.37 0.34 0.35 0.39 0.29 0.21 0.33 0.38 0.36 0.47 0.51 0.55 0.60 0.72 0.67 0.75 0.89 0.85 0.65 0.57 0.64 0.56 0.46 0.45 0.62 0.84 0.92 0.98 1.03 1.13 1.26 1.18 1.08
0.49 0.50 0.51 0.52 0.51 0.49 0.48 0.45 0.42 0.41 0.43 0.45 0.43 0.40 0.37 0.40 0.21 0.27 0.59 0.56 0.50 0.54 0.46 0.48 0.50 0.55 0.52 0.62 0.69 0.74 0.58 0.64 0.64 0.57 0.53 0.49 0.49 0.79 0.82 0.81 0.95 0.98 1.11 1.15 1.02
0.50 0.50 0.50 0.50 0.50 0.50 0.51 0.51 0.50 0.45 0.41 0.39 0.42 0.45 0.44 0.34 0.15 0.42 0.58 0.53 0.58 0.60 0.45 0.32 0.27 0.26 0.34 0.41 0.61 0.54 0.63 0.67 0.60 0.57 0.54 0.49 0.55 0.62 0.74 0.73 0.96 1.13 1.25 1.18 1.03
0.58 0.56 0.54 0.52 0.48 0.45 0.43 0.42 0.44 0.46 0.47 0.46 0.43 0.40 0.31 0.25 0.21 0.33 0.47 0.62 0.58 0.56 0.40 0.33 0.28 0.25 0.20 0.34 0.48 0.50 0.54 0.58 0.56 0.56 0.55 0.51 0.48 0.59 0.64 0.79 0.94 1.11 1.26 1.13 1.07
0.67 0.65 0.64 0.61 0.57 0.54 0.48 0.36 0.31 0.34 0.39 0.44 0.49 0.49 0.27 0.14 0.28 0.34 0.40 0.41 0.45 0.50 0.44 0.42 0.31 0.31 0.24 0.28 0.37 0.45 0.45 0.44 0.51 0.55 0.55 0.47 0.42 0.57 0.59 0.75 0.80 0.96 1.14 1.11 1.08
0.73 0.70 0.68 0.66 0.63 0.60 0.59 0.48 0.35 0.36 0.37 0.40 0.46 0.38 0.26 0.22 0.24 0.47 0.47 0.33 0.35 0.33 0.44 0.47 0.46 0.38 0.42 0.33 0.41 0.37 0.30 0.32 0.35 0.46 0.48 0.48 0.37 0.42 0.46 0.65 0.71 0.87 1.05 1.11 1.08
0.71 0.68 0.64 0.61 0.58 0.53 0.51 0.40 0.40 0.46 0.45 0.46 0.48 0.40 0.19 0.22 0.27 0.29 0.28 0.33 0.38 0.40 0.41 0.42 0.54 0.37 0.32 0.43 0.34 0.27 0.24 0.17 0.23 0.29 0.39 0.40 0.31 0.38 0.52 0.64 0.67 0.85 1.01 1.09 1.09
0.72 0.69 0.67 0.61 0.58 0.54 0.45 0.41 0.42 0.47 0.49 0.51 0.38 0.27 0.18 0.26 0.22 0.29 0.35 0.25 0.34 0.39 0.43 0.45 0.54 0.41 0.40 0.34 0.27 0.23 0.15 0.16 0.17 0.20 0.23 0.28 0.28 0.36 0.45 0.56 0.66 0.78 0.99 1.05 1.07
0.70 0.69 0.68 0.65 0.61 0.58 0.46 0.41 0.45 0.53 0.49 0.52 0.47 0.27 0.26 0.21 0.24 0.27 0.32 0.30 0.25 0.33 0.30 0.30 0.40 0.35 0.35 0.32 0.18 0.18 0.17 0.16 0.16 0.19 0.20 0.22 0.24 0.34 0.39 0.50 0.67 0.78 0.95 1.04 1.03
0.72 0.69 0.69 0.66 0.62 0.57 0.45 0.34 0.28 0.25 0.27 0.22 0.22 0.22 0.23 0.25 0.26 0.21 0.27 0.27 0.26 0.28 0.26 0.29 0.24 0.26 0.29 0.31 0.31 0.29 0.23 0.18 0.18 0.20 0.22 0.24 0.25 0.30 0.34 0.51 0.62 0.76 0.85 0.99 0.98
0.76 0.76 0.73 0.65 0.61 0.55 0.42 0.31 0.30 0.32 0.21 0.26 0.27 0.29 0.31 0.30 0.21 0.19 0.24 0.21 0.23 0.18 0.25 0.25 0.20 0.30 0.36 0.36 0.35 0.31 0.25 0.20 0.20 0.23 0.27 0.27 0.25 0.30 0.31 0.42 0.48 0.58 0.80 0.90 1.00
0.82 0.80 0.75 0.67 0.59 0.53 0.42 0.33 0.41 0.40 0.23 0.25 0.30 0.29 0.30 0.30 0.25 0.25 0.27 0.23 0.19 0.19 0.22 0.19 0.24 0.26 0.35 0.37 0.34 0.33 0.30 0.27 0.20 0.29 0.31 0.28 0.25 0.28 0.31 0.41 0.54 0.59 0.72 0.94 0.96
0.86 0.82 0.75 0.64 0.48 0.51 0.39 0.42 0.45 0.42 0.19 0.21 0.27 0.29 0.30 0.30 0.25 0.31 0.31 0.27 0.21 0.17 0.18 0.20 0.27 0.24 0.25 0.28 0.34 0.31 0.37 0.35 0.27 0.25 0.22 0.30 0.19 0.25 0.28 0.28 0.37 0.45 0.59 0.69 0.85
0.85 0.82 0.73 0.69 0.52 0.45 0.44 0.47 0.45 0.33 0.13 0.23 0.27 0.35 0.31 0.27 0.28 0.27 0.33 0.27 0.21 0.19 0.17 0.16 0.21 0.20 0.20 0.21 0.29 0.25 0.38 0.38 0.31 0.25 0.24 0.27 0.24 0.24 0.26 0.23 0.26 0.30 0.43 0.51 0.66
0.81 0.77 0.70 0.64 0.57 0.55 0.54 0.46 0.36 0.20 0.13 0.21 0.27 0.24 0.23 0.27 0.26 0.28 0.28 0.26 0.25 0.20 0.19 0.15 0.21 0.22 0.22 0.24 0.25 0.28 0.29 0.29 0.28 0.27 0.20 0.25 0.24 0.21 0.23 0.23 0.23 0.27 0.30 0.41 0.58
0.75 0.72 0.67 0.63 0.43 0.57 0.49 0.36 0.21 0.16 0.25 0.23 0.22 0.23 0.22 0.22 0.23 0.25 0.25 0.23 0.18 0.15 0.15 0.17 0.16 0.21 0.24 0.22 0.25 0.27 0.25 0.22 0.21 0.22 0.21 0.27 0.21 0.20 0.23 0.25 0.24 0.21 0.29 0.36 0.49
0.73 0.68 0.58 0.54 0.55 0.52 0.41 0.29 0.17 0.22 0.22 0.27 0.25 0.22 0.18 0.21 0.22 0.25 0.25 0.24 0.27 0.23 0.19 0.15 0.11 0.18 0.24 0.23 0.23 0.26 0.27 0.23 0.20 0.21 0.23 0.30 0.22 0.21 0.28 0.29 0.29 0.30 0.37 0.45 0.47
0.71 0.56 0.51 0.55 0.54 0.50 0.33 0.23 0.22 0.23 0.27 0.28 0.25 0.19 0.19 0.21 0.23 0.23 0.25 0.26 0.29 0.33 0.26 0.21 0.16 0.21 0.24 0.26 0.28 0.26 0.26 0.30 0.26 0.26 0.24 0.26 0.28 0.31 0.30 0.30 0.31 0.38 0.54 0.56 0.55
0.58 0.49 0.48 0.61 0.61 0.42 0.27 0.23 0.25 0.30 0.34 0.33 0.23 0.24 0.19 0.20 0.20 0.21 0.24 0.28 0.30 0.40 0.42 0.35 0.24 0.29 0.28 0.31 0.31 0.31 0.32 0.27 0.29 0.24 0.23 0.25 0.26 0.25 0.28 0.31 0.40 0.47 0.54 0.62 0.60
0.54 0.41 0.54 0.61 0.58 0.39 0.23 0.24 0.29 0.42 0.40 0.32 0.29 0.27 0.27 0.23 0.22 0.21 0.23 0.30 0.35 0.39 0.45 0.40 0.34 0.29 0.32 0.27 0.27 0.30 0.29 0.30 0.34 0.34 0.27 0.25 0.26 0.33 0.36 0.52 0.53 0.64 0.67 0.79 0.78
0.51 0.36 0.56 0.58 0.36 0.36 0.28 0.32 0.39 0.40 0.46 0.41 0.36 0.33 0.30 0.31 0.26 0.23 0.25 0.31 0.42 0.48 0.39 0.44 0.38 0.30 0.31 0.41 0.43 0.40 0.35 0.32 0.31 0.31 0.32 0.31 0.25 0.54 0.61 0.68 0.65 0.68 0.81 1.00 1.13
0.44 0.44 0.55 0.52 0.30 0.29 0.34 0.34 0.39 0.38 0.43 0.41 0.38 0.41 0.39 0.35 0.30 0.34 0.35 0.44 0.47 0.45 0.42 0.44 0.36 0.29 0.29 0.38 0.45 0.43 0.45 0.40 0.34 0.35 0.29 0.26 0.27 0.57 0.65 0.69 0.77 0.76 0.90 1.12 1.28
0.47 0.36 0.42 0.44 0.41 0.33 0.29 0.30 0.33 0.43 0.43 0.47 0.41 0.42 0.40 0.37 0.42 0.37 0.38 0.42 0.47 0.47 0.54 0.51 0.41 0.38 0.32 0.37 0.45 0.46 0.45 0.55 0.38 0.31 0.28 0.29 0.30 0.46 0.59 0.65 0.81 0.84 0.96 1.17 1.26
0.48 0.40 0.42 0.32 0.33 0.33 0.31 0.32 0.31 0.31 0.42 0.47 0.42 0.43 0.41 0.35 0.36 0.35 0.40 0.43 0.41 0.47 0.48 0.48 0.35 0.39 0.42 0.47 0.47 0.53 0.56 0.59 0.45 0.32 0.28 0.31 0.38 0.58 0.68 0.75 0.90 0.94 1.01 1.06 1.14
0.45 0.40 0.43 0.38 0.38 0.33 0.32 0.30 0.32 0.34 0.36 0.38 0.41 0.41 0.44 0.39 0.40 0.36 0.42 0.42 0.42 0.43 0.44 0.50 0.38 0.41 0.37 0.45 0.46 0.45 0.52 0.60 0.72 0.60 0.57 0.51 0.51 0.83 0.89 0.97 1.01 1.02 1.05 1.00 1.05
0.59 0.56 0.46 0.39 0.34 0.31 0.28 0.29 0.30 0.32 0.37 0.43 0.43 0.42 0.42 0.46 0.51 0.51 0.52 0.50 0.51 0.47 0.44 0.44 0.41 0.35 0.27 0.37 0.41 0.41 0.59 0.61 0.81 0.74 0.72 0.53 0.67 0.89 0.91 0.95 1.05 1.07 1.13 1.09 1.09

GFSSW_prec_pwat_087.txt.gz
Precipitable_Water
0.51 0.51 0.51 0.50 0.50 0.49 0.49 0.50 0.52 0.51 0.48 0.45 0.40 0.36 0.36 0.37 0.38 0.34 0.18 0.21 0.27 0.57 0.93 0.88 0.93 1.01 1.17 1.00 1.14 1.22 0.69 0.53 0.52 0.48 0.45 0.50 0.49 0.83 1.02 0.99 1.11 1.19 1.19 1.17 1.09
0.57 0.58 0.57 0.57 0.56 0.54 0.51 0.48 0.45 0.45 0.47 0.48 0.47 0.44 0.43 0.42 0.30 0.22 0.34 0.40 0.42 0.61 0.51 0.48 0.59 0.81 0.78 0.74 0.88 0.83 0.63 0.56 0.65 0.62 0.50 0.48 0.46 0.69 0.82 0.90 0.99 1.10 1.30 1.33 1.12
0.64 0.64 0.62 0.61 0.60 0.58 0.56 0.54 0.50 0.46 0.42 0.41 0.45 0.48 0.47 0.47 0.25 0.28 0.55 0.52 0.54 0.59 0.53 0.52 0.53 0.56 0.49 0.62 0.69 0.73 0.53 0.64 0.62 0.66 0.59 0.52 0.47 0.63 0.68 0.69 0.83 0.91 1.14 1.26 1.10
0.67 0.64 0.61 0.59 0.56 0.54 0.53 0.52 0.50 0.44 0.44 0.45 0.45 0.43 0.45 0.38 0.19 0.42 0.55 0.50 0.52 0.61 0.54 0.46 0.42 0.30 0.27 0.31 0.48 0.45 0.58 0.63 0.62 0.60 0.56 0.55 0.54 0.54 0.61 0.61 0.84 1.00 1.20 1.25 1.08
0.71 0.68 0.66 0.63 0.60 0.56 0.52 0.49 0.45 0.33 0.34 0.39 0.45 0.47 0.36 0.19 0.22 0.44 0.51 0.65 0.70 0.54 0.44 0.38 0.31 0.29 0.23 0.25 0.33 0.38 0.45 0.57 0.61 0.56 0.55 0.58 0.53 0.50 0.54 0.67 0.82 0.95 1.10 1.22 1.13
0.72 0.70 0.67 0.63 0.59 0.57 0.55 0.53 0.47 0.43 0.38 0.40 0.39 0.41 0.28 0.20 0.25 0.36 0.54 0.50 0.47 0.48 0.46 0.44 0.38 0.35 0.28 0.26 0.26 0.35 0.43 0.49 0.48 0.46 0.49 0.52 0.52 0.53 0.49 0.65 0.73 0.83 0.93 1.16 1.17
0.68 0.66 0.64 0.61 0.57 0.50 0.48 0.44 0.42 0.39 0.44 0.47 0.45 0.37 0.23 0.16 0.35 0.42 0.44 0.37 0.36 0.30 0.26 0.44 0.50 0.40 0.42 0.33 0.40 0.34 0.26 0.29 0.36 0.40 0.39 0.43 0.42 0.48 0.51 0.53 0.60 0.72 0.88 1.08 1.20
0.70 0.65 0.61 0.61 0.58 0.51 0.47 0.44 0.42 0.43 0.45 0.46 0.47 0.37 0.20 0.27 0.27 0.25 0.31 0.30 0.39 0.39 0.31 0.37 0.49 0.39 0.40 0.40 0.36 0.32 0.29 0.20 0.22 0.26 0.28 0.29 0.25 0.42 0.49 0.54 0.56 0.68 0.82 1.00 1.16
0.69 0.64 0.60 0.61 0.60 0.55 0.50 0.46 0.45 0.49 0.52 0.56 0.41 0.28 0.19 0.29 0.25 0.31 0.32 0.25 0.30 0.38 0.45 0.49 0.45 0.37 0.39 0.28 0.28 0.31 0.22 0.23 0.21 0.23 0.21 0.21 0.19 0.29 0.40 0.40 0.50 0.64 0.77 0.95 1.13
0.71 0.68 0.64 0.64 0.62 0.60 0.51 0.44 0.45 0.49 0.48 0.49 0.46 0.25 0.28 0.24 0.26 0.27 0.30 0.28 0.25 0.28 0.32 0.36 0.35 0.29 0.32 0.28 0.18 0.21 0.22 0.24 0.25 0.24 0.24 0.18 0.17 0.25 0.30 0.33 0.43 0.63 0.76 0.90 0.99
0.76 0.73 0.71 0.69 0.66 0.61 0.47 0.34 0.27 0.26 0.28 0.23 0.23 0.26 0.28 0.31 0.31 0.26 0.26 0.24 0.24 0.25 0.19 0.29 0.23 0.22 0.26 0.26 0.28 0.28 0.27 0.26 0.29 0.28 0.22 0.19 0.22 0.25 0.28 0.31 0.43 0.57 0.73 0.85 0.93
0.81 0.78 0.74 0.70 0.63 0.59 0.45 0.30 0.31 0.34 0.23 0.30 0.31 0.31 0.33 0.33 0.27 0.28 0.30 0.20 0.20 0.18 0.24 0.23 0.19 0.28 0.29 0.30 0.29 0.31 0.29 0.28 0.32 0.30 0.28 0.23 0.22 0.27 0.29 0.31 0.40 0.53 0.66 0.78 0.95
0.85 0.83 0.76 0.68 0.62 0.56 0.41 0.36 0.46 0.41 0.24 0.27 0.31 0.30 0.30 0.31 0.27 0.27 0.30 0.26 0.21 0.18 0.19 0.17 0.20 0.26 0.26 0.26 0.26 0.30 0.31 0.30 0.31 0.36 0.34 0.24 0.20 0.26 0.30 0.31 0.38 0.48 0.63 0.77 0.85
0.86 0.86 0.77 0.67 0.51 0.54 0.41 0.46 0.48 0.42 0.20 0.22 0.28 0.31 0.32 0.31 0.25 0.32 0.32 0.27 0.23 0.20 0.20 0.17 0.20 0.20 0.22 0.23 0.28 0.25 0.35 0.35 0.36 0.34 0.28 0.28 0.16 0.24 0.29 0.28 0.31 0.37 0.50 0.56 0.69
0.85 0.82 0.74 0.71 0.54 0.46 0.48 0.52 0.46 0.36 0.14 0.26 0.28 0.36 0.32 0.28 0.27 0.27 0.33 0.27 0.20 0.20 0.20 0.17 0.17 0.17 0.18 0.20 0.25 0.21 0.28 0.29 0.30 0.30 0.28 0.25 0.21 0.23 0.30 0.27 0.28 0.31 0.37 0.46 0.53
0.83 0.78 0.73 0.64 0.59 0.56 0.57 0.48 0.37 0.21 0.14 0.24 0.28 0.26 0.23 0.25 0.26 0.29 0.29 0.29 0.24 0.19 0.20 0.19 0.23 0.21 0.20 0.22 0.25 0.26 0.24 0.25 0.27 0.26 0.21 0.25 0.22 0.23 0.25 0.28 0.30 0.32 0.34 0.34 0.45
0.81 0.74 0.67 0.60 0.42 0.58 0.51 0.36 0.22 0.17 0.28 0.24 0.24 0.25 0.23 0.21 0.22 0.24 0.24 0.23 0.21 0.17 0.16 0.19 0.18 0.19 0.20 0.18 0.23 0.24 0.22 0.18 0.18 0.20 0.19 0.28 0.23 0.25 0.30 0.30 0.32 0.32 0.33 0.37 0.38
0.76 0.68 0.61 0.57 0.56 0.53 0.41 0.29 0.19 0.26 0.24 0.30 0.28 0.25 0.21 0.23 0.22 0.22 0.23 0.22 0.26 0.29 0.23 0.18 0.15 0.19 0.21 0.19 0.19 0.23 0.23 0.20 0.17 0.19 0.21 0.29 0.20 0.26 0.35 0.33 0.36 0.39 0.45 0.53 0.58
0.72 0.55 0.54 0.56 0.58 0.50 0.35 0.24 0.25 0.26 0.31 0.29 0.28 0.22 0.22 0.24 0.22 0.20 0.21 0.22 0.26 0.33 0.28 0.25 0.22 0.32 0.25 0.23 0.23 0.25 0.23 0.27 0.24 0.25 0.21 0.24 0.27 0.30 0.36 0.34 0.42 0.51 0.56 0.65 0.66
0.59 0.50 0.50 0.61 0.63 0.43 0.30 0.26 0.27 0.35 0.35 0.34 0.25 0.27 0.21 0.23 0.19 0.20 0.20 0.25 0.29 0.37 0.43 0.36 0.26 0.34 0.35 0.31 0.26 0.25 0.29 0.24 0.27 0.22 0.21 0.25 0.27 0.26 0.31 0.36 0.43 0.47 0.55 0.70 0.80
0.54 0.43 0.54 0.61 0.59 0.39 0.26 0.28 0.32 0.42 0.39 0.33 0.30 0.27 0.27 0.25 0.24 0.20 0.20 0.26 0.33 0.36 0.43 0.40 0.35 0.32 0.38 0.35 0.32 0.30 0.26 0.28 0.31 0.30 0.25 0.23 0.26 0.36 0.35 0.47 0.48 0.58 0.69 0.83 0.89
0.51 0.38 0.56 0.59 0.38 0.37 0.30 0.33 0.38 0.40 0.46 0.41 0.38 0.33 0.30 0.30 0.27 0.24 0.24 0.32 0.42 0.43 0.35 0.41 0.37 0.31 0.35 0.42 0.48 0.48 0.42 0.37 0.28 0.27 0.27 0.27 0.25 0.53 0.57 0.62 0.63 0.70 0.80 0.94 1.05
0.46 0.46 0.57 0.55 0.32 0.32 0.35 0.33 0.38 0.37 0.42 0.42 0.38 0.41 0.39 0.33 0.28 0.33 0.34 0.42 0.43 0.43 0.41 0.46 0.35 0.28 0.32 0.40 0.49 0.48 0.53 0.58 0.54 0.37 0.27 0.24 0.24 0.59 0.65 0.72 0.78 0.80 0.92 1.03 1.17
0.48 0.37 0.44 0.47 0.43 0.35 0.31 0.30 0.32 0.41 0.41 0.45 0.41 0.43 0.38 0.35 0.39 0.34 0.34 0.38 0.40 0.40 0.47 0.49 0.37 0.33 0.29 0.34 0.42 0.39 0.48 0.66 0.59 0.42 0.31 0.26 0.27 0.48 0.59 0.66 0.83 0.87 0.98 1.09 1.24
0.51 0.41 0.44 0.34 0.36 0.35 0.33 0.30 0.29 0.31 0.39 0.45 0.41 0.41 0.37 0.32 0.34 0.33 0.38 0.39 0.38 0.44 0.47 0.47 0.36 0.37 0.36 0.40 0.42 0.44 0.44 0.56 0.57 0.63 0.51 0.40 0.38 0.56 0.72 0.81 0.90 0.95 0.96 1.07 1.16
0.47 0.42 0.45 0.40 0.39 0.33 0.30 0.28 0.28 0.31 0.35 0.37 0.37 0.39 0.41 0.36 0.38 0.35 0.39 0.37 0.37 0.41 0.42 0.49 0.37 0.40 0.35 0.37 0.38 0.36 0.47 0.52 0.56 0.58 0.57 0.69 0.57 0.83 0.94 1.00 0.98 0.97 0.97 1.03 1.08
0.61 0.58 0.48 0.40 0.36 0.32 0.30 0.29 0.29 0.31 0.32 0.37 0.39 0.37 0.36 0.41 0.45 0.46 0.43 0.46 0.49 0.45 0.42 0.43 0.42 0.38 0.30 0.34 0.33 0.31 0.51 0.57 0.56 0.58 0.62 0.63 0.82 0.98 0.91 0.97 1.02 1.01 1.02 1.07 1.08

GFSSW_prec_pwat_093.txt.gz
Precipitable_Water
0.65 0.64 0.62 0.61 0.60 0.59 0.57 0.55 0.53 0.52 0.51 0.47 0.45 0.47 0.50 0.51 0.49 0.47 0.33 0.38 0.37 0.44 0.66 0.80 1.00 1.02 1.05 1.01 1.13 1.05 0.76 0.64 0.73 0.64 0.59 0.64 0.53 0.59 0.81 0.87 0.91 1.02 1.14 1.28 1.39
0.69 0.68 0.67 0.65 0.63 0.62 0.59 0.57 0.54 0.53 0.50 0.46 0.40 0.42 0.46 0.49 0.39 0.34 0.45 0.41 0.36 0.51 0.54 0.65 0.64 0.72 0.67 0.79 0.86 0.86 0.74 0.70 0.75 0.71 0.65 0.65 0.56 0.56 0.67 0.84 0.98 0.94 1.17 1.30 1.35
0.70 0.67 0.65 0.64 0.60 0.58 0.56 0.54 0.50 0.50 0.49 0.48 0.42 0.39 0.42 0.45 0.30 0.38 0.47 0.48 0.44 0.57 0.72 0.69 0.63 0.62 0.52 0.60 0.59 0.61 0.60 0.73 0.74 0.72 0.71 0.65 0.55 0.62 0.59 0.61 0.81 1.01 1.07 1.22 1.31
0.66 0.62 0.58 0.55 0.53 0.51 0.51 0.50 0.46 0.45 0.44 0.43 0.43 0.42 0.42 0.36 0.19 0.57 0.45 0.42 0.45 0.69 0.72 0.56 0.48 0.49 0.44 0.36 0.38 0.34 0.38 0.42 0.50 0.52 0.58 0.63 0.62 0.50 0.54 0.58 0.67 0.83 1.17 1.11 1.18
0.63 0.60 0.57 0.54 0.51 0.49 0.47 0.46 0.43 0.42 0.41 0.41 0.44 0.43 0.32 0.29 0.27 0.56 0.48 0.51 0.54 0.75 0.53 0.53 0.48 0.49 0.41 0.35 0.30 0.28 0.30 0.29 0.33 0.37 0.44 0.58 0.56 0.52 0.50 0.57 0.64 0.84 1.17 1.08 1.14
0.64 0.63 0.62 0.57 0.54 0.51 0.49 0.47 0.44 0.41 0.39 0.41 0.43 0.47 0.26 0.16 0.30 0.49 0.61 0.51 0.51 0.59 0.52 0.49 0.45 0.46 0.40 0.36 0.34 0.33 0.31 0.29 0.28 0.25 0.28 0.33 0.40 0.47 0.51 0.57 0.68 0.89 1.05 1.12 1.18
0.64 0.66 0.65 0.59 0.57 0.55 0.53 0.52 0.49 0.43 0.43 0.44 0.47 0.40 0.28 0.22 0.36 0.49 0.56 0.55 0.61 0.55 0.45 0.45 0.45 0.39 0.38 0.34 0.40 0.40 0.34 0.34 0.32 0.32 0.27 0.28 0.26 0.32 0.42 0.48 0.50 0.81 1.01 1.10 1.15
0.64 0.65 0.65 0.62 0.60 0.57 0.54 0.54 0.47 0.46 0.48 0.48 0.48 0.42 0.28 0.34 0.30 0.28 0.35 0.45 0.43 0.32 0.32 0.37 0.33 0.34 0.37 0.37 0.34 0.32 0.30 0.25 0.32 0.33 0.34 0.28 0.19 0.23 0.30 0.34 0.44 0.60 0.85 1.03 1.10
0.65 0.64 0.64 0.61 0.61 0.55 0.54 0.50 0.46 0.49 0.52 0.50 0.55 0.44 0.29 0.32 0.28 0.32 0.32 0.26 0.27 0.31 0.38 0.39 0.34 0.25 0.28 0.29 0.27 0.27 0.20 0.22 0.28 0.36 0.38 0.33 0.22 0.27 0.28 0.29 0.35 0.40 0.41 0.76 1.01
0.69 0.66 0.65 0.65 0.62 0.56 0.53 0.47 0.46 0.46 0.50 0.53 0.47 0.38 0.35 0.29 0.31 0.31 0.32 0.33 0.29 0.28 0.38 0.36 0.33 0.26 0.26 0.25 0.19 0.24 0.24 0.24 0.26 0.36 0.39 0.32 0.31 0.29 0.32 0.29 0.27 0.28 0.33 0.48 0.89
0.76 0.71 0.70 0.68 0.64 0.58 0.51 0.45 0.38 0.41 0.36 0.29 0.31 0.31 0.31 0.33 0.34 0.32 0.32 0.29 0.28 0.26 0.22 0.28 0.29 0.25 0.27 0.29 0.31 0.30 0.27 0.25 0.26 0.28 0.36 0.33 0.32 0.35 0.32 0.34 0.30 0.32 0.32 0.39 0.83
0.80 0.75 0.72 0.69 0.64 0.62 0.55 0.36 0.36 0.39 0.30 0.32 0.32 0.32 0.33 0.34 0.30 0.32 0.34 0.27 0.26 0.21 0.23 0.22 0.21 0.28 0.31 0.28 0.23 0.22 0.22 0.24 0.29 0.31 0.30 0.29 0.33 0.33 0.36 0.38 0.31 0.33 0.37 0.50 0.77
0.80 0.79 0.73 0.68 0.65 0.62 0.44 0.40 0.47 0.44 0.32 0.32 0.32 0.31 0.30 0.31 0.28 0.30 0.31 0.31 0.27 0.25 0.25 0.22 0.20 0.24 0.23 0.21 0.21 0.22 0.23 0.22 0.22 0.28 0.31 0.31 0.32 0.37 0.37 0.38 0.33 0.34 0.38 0.49 0.76
0.82 0.79 0.73 0.64 0.64 0.54 0.46 0.50 0.49 0.44 0.29 0.28 0.30 0.32 0.31 0.31 0.29 0.34 0.32 0.27 0.24 0.23 0.24 0.21 0.22 0.22 0.21 0.18 0.18 0.17 0.23 0.22 0.22 0.22 0.21 0.33 0.23 0.34 0.41 0.40 0.36 0.37 0.38 0.46 0.78
0.79 0.75 0.72 0.67 0.52 0.52 0.55 0.54 0.48 0.42 0.22 0.30 0.29 0.34 0.32 0.27 0.28 0.31 0.35 0.30 0.25 0.24 0.23 0.21 0.22 0.21 0.21 0.20 0.21 0.18 0.21 0.21 0.22 0.21 0.25 0.29 0.29 0.27 0.38 0.35 0.36 0.39 0.38 0.41 0.72
0.77 0.74 0.64 0.63 0.63 0.58 0.56 0.51 0.44 0.28 0.22 0.27 0.27 0.28 0.26 0.29 0.28 0.28 0.31 0.37 0.35 0.31 0.32 0.29 0.34 0.29 0.25 0.21 0.20 0.21 0.20 0.22 0.23 0.23 0.18 0.24 0.24 0.22 0.29 0.37 0.39 0.40 0.41 0.51 0.66
0.73 0.70 0.61 0.57 0.48 0.54 0.52 0.45 0.31 0.24 0.32 0.28 0.27 0.28 0.26 0.27 0.25 0.27 0.27 0.29 0.27 0.26 0.27 0.27 0.31 0.30 0.27 0.22 0.24 0.21 0.20 0.17 0.18 0.20 0.18 0.24 0.22 0.21 0.31 0.38 0.42 0.48 0.61 0.73 0.69
0.72 0.67 0.62 0.56 0.55 0.53 0.48 0.37 0.27 0.31 0.27 0.32 0.30 0.28 0.26 0.28 0.27 0.25 0.25 0.26 0.32 0.32 0.27 0.24 0.21 0.32 0.34 0.30 0.29 0.28 0.22 0.19 0.17 0.19 0.21 0.27 0.26 0.27 0.32 0.46 0.53 0.58 0.63 0.70 0.79
0.73 0.69 0.58 0.61 0.58 0.51 0.38 0.30 0.30 0.33 0.32 0.30 0.30 0.30 0.30 0.31 0.26 0.26 0.26 0.25 0.28 0.34 0.28 0.24 0.25 0.34 0.31 0.38 0.35 0.29 0.22 0.25 0.21 0.24 0.21 0.22 0.30 0.41 0.42 0.42 0.46 0.49 0.63 0.76 0.94
0.65 0.61 0.56 0.58 0.61 0.49 0.34 0.29 0.32 0.34 0.33 0.34 0.30 0.32 0.28 0.31 0.28 0.28 0.25 0.29 0.28 0.35 0.36 0.29 0.24 0.34 0.35 0.36 0.35 0.40 0.41 0.25 0.27 0.22 0.20 0.25 0.28 0.32 0.39 0.45 0.44 0.42 0.60 0.93 0.96
0.66 0.50 0.65 0.58 0.55 0.46 0.34 0.34 0.36 0.41 0.39 0.36 0.36 0.32 0.34 0.33 0.30 0.29 0.27 0.27 0.36 0.36 0.34 0.29 0.29 0.33 0.35 0.31 0.35 0.37 0.40 0.42 0.38 0.39 0.39 0.24 0.24 0.38 0.43 0.56 0.60 0.73 0.97 1.00 0.97
0.58 0.45 0.66 0.54 0.42 0.46 0.36 0.42 0.41 0.39 0.47 0.41 0.40 0.35 0.34 0.36 0.34 0.31 0.29 0.34 0.39 0.36 0.29 0.34 0.31 0.25 0.29 0.36 0.40 0.37 0.49 0.51 0.40 0.33 0.35 0.45 0.45 0.70 0.74 0.65 0.81 0.98 0.95 0.97 1.04
0.54 0.48 0.61 0.51 0.37 0.40 0.43 0.37 0.39 0.39 0.42 0.45 0.43 0.42 0.42 0.37 0.34 0.35 0.37 0.40 0.39 0.37 0.36 0.36 0.27 0.22 0.25 0.33 0.46 0.46 0.50 0.49 0.53 0.47 0.49 0.43 0.27 0.62 0.84 0.95 1.06 0.97 0.85 0.92 1.04
0.53 0.41 0.49 0.53 0.46 0.38 0.37 0.37 0.35 0.43 0.36 0.39 0.41 0.44 0.40 0.39 0.44 0.39 0.39 0.42 0.44 0.44 0.44 0.38 0.33 0.34 0.27 0.30 0.40 0.41 0.47 0.46 0.43 0.39 0.46 0.50 0.50 0.59 0.70 0.76 1.09 1.00 1.04 1.03 1.10
0.58 0.46 0.49 0.37 0.43 0.43 0.40 0.36 0.33 0.33 0.42 0.42 0.38 0.41 0.39 0.37 0.39 0.37 0.41 0.44 0.45 0.47 0.42 0.40 0.35 0.40 0.41 0.40 0.36 0.36 0.36 0.35 0.35 0.40 0.41 0.55 0.52 0.65 0.75 0.79 1.07 1.10 1.27 1.01 1.03
0.52 0.49 0.51 0.41 0.44 0.39 0.37 0.34 0.34 0.32 0.34 0.33 0.38 0.39 0.45 0.38 0.39 0.37 0.41 0.40 0.35 0.35 0.35 0.43 0.36 0.41 0.38 0.39 0.37 0.34 0.34 0.34 0.35 0.34 0.47 0.52 0.49 0.89 0.98 1.00 1.02 1.12 1.14 1.03 1.03
0.68 0.61 0.49 0.42 0.41 0.39 0.34 0.36 0.38 0.37 0.34 0.33 0.33 0.36 0.37 0.37 0.47 0.47 0.40 0.36 0.34 0.34 0.39 0.49 0.46 0.42 0.34 0.41 0.39 0.33 0.37 0.43 0.40 0.59 0.50 0.50 0.67 0.72 0.67 0.85 1.06 1.18 1.10 1.02 1.09

GFSSW_prec_pwat_096.txt.gz
Precipitable_Water
0.68 0.66 0.63 0.62 0.61 0.59 0.58 0.56 0.54 0.51 0.48 0.46 0.44 0.42 0.45 0.49 0.48 0.46 0.34 0.45 0.43 0.45 0.41 0.49 0.67 0.96 1.02 0.89 1.02 1.06 0.70 0.68 0.87 0.99 0.81 0.73 0.58 0.62 0.69 0.94 0.93 1.04 1.08 1.13 1.31
0.69 0.67 0.63 0.62 0.60 0.59 0.57 0.56 0.54 0.52 0.48 0.46 0.43 0.42 0.41 0.46 0.34 0.29 0.39 0.46 0.42 0.36 0.32 0.43 0.60 0.79 0.70 0.70 0.76 0.75 0.67 0.64 0.86 0.95 0.84 0.74 0.66 0.57 0.61 0.71 1.02 1.14 1.29 1.17 1.28
0.60 0.59 0.57 0.55 0.54 0.51 0.49 0.48 0.47 0.46 0.43 0.43 0.42 0.43 0.43 0.41 0.25 0.28 0.45 0.46 0.45 0.42 0.44 0.65 0.70 0.65 0.54 0.53 0.54 0.64 0.53 0.56 0.55 0.59 0.60 0.57 0.58 0.63 0.56 0.57 0.78 1.11 1.21 1.16 1.12
0.57 0.57 0.56 0.54 0.51 0.48 0.47 0.45 0.43 0.41 0.40 0.40 0.40 0.42 0.42 0.34 0.21 0.58 0.47 0.41 0.38 0.46 0.64 0.67 0.59 0.46 0.44 0.44 0.45 0.35 0.36 0.35 0.32 0.31 0.31 0.34 0.47 0.61 0.63 0.53 0.60 1.05 1.22 1.14 1.08
0.57 0.58 0.59 0.57 0.53 0.49 0.48 0.45 0.42 0.41 0.40 0.37 0.40 0.45 0.36 0.23 0.21 0.52 0.47 0.42 0.40 0.55 0.62 0.58 0.47 0.44 0.41 0.47 0.43 0.34 0.31 0.32 0.32 0.30 0.29 0.32 0.36 0.48 0.53 0.57 0.58 0.99 1.27 1.19 1.14
0.58 0.58 0.58 0.57 0.53 0.51 0.51 0.48 0.47 0.45 0.41 0.40 0.44 0.45 0.28 0.17 0.34 0.56 0.60 0.46 0.41 0.48 0.56 0.50 0.49 0.52 0.46 0.41 0.37 0.36 0.35 0.32 0.32 0.31 0.32 0.28 0.24 0.28 0.38 0.49 0.54 0.93 1.16 1.20 1.18
0.58 0.56 0.57 0.57 0.55 0.56 0.56 0.55 0.53 0.47 0.44 0.46 0.48 0.41 0.30 0.28 0.35 0.45 0.54 0.52 0.43 0.51 0.45 0.52 0.52 0.44 0.40 0.34 0.37 0.37 0.35 0.37 0.38 0.35 0.33 0.35 0.29 0.28 0.32 0.41 0.43 0.55 0.93 1.19 1.21
0.66 0.62 0.59 0.57 0.57 0.56 0.54 0.54 0.49 0.46 0.46 0.48 0.49 0.42 0.34 0.37 0.35 0.30 0.39 0.51 0.58 0.63 0.54 0.47 0.43 0.35 0.28 0.31 0.33 0.29 0.29 0.25 0.30 0.31 0.35 0.35 0.28 0.31 0.29 0.26 0.32 0.42 0.70 0.96 1.21
0.71 0.67 0.63 0.61 0.57 0.55 0.53 0.49 0.47 0.45 0.48 0.52 0.51 0.44 0.39 0.37 0.29 0.31 0.30 0.26 0.32 0.41 0.38 0.32 0.31 0.27 0.28 0.22 0.20 0.25 0.24 0.26 0.29 0.29 0.34 0.37 0.34 0.40 0.34 0.31 0.28 0.35 0.52 0.70 0.97
0.75 0.71 0.68 0.63 0.59 0.57 0.54 0.48 0.49 0.45 0.49 0.58 0.50 0.44 0.47 0.32 0.32 0.31 0.32 0.31 0.30 0.29 0.27 0.29 0.36 0.30 0.28 0.24 0.17 0.21 0.22 0.25 0.26 0.31 0.32 0.33 0.37 0.40 0.40 0.36 0.35 0.33 0.32 0.36 0.41
0.73 0.73 0.70 0.66 0.61 0.59 0.54 0.48 0.42 0.46 0.43 0.33 0.33 0.32 0.32 0.34 0.34 0.33 0.33 0.29 0.28 0.27 0.22 0.29 0.29 0.29 0.30 0.30 0.30 0.27 0.26 0.25 0.27 0.30 0.29 0.29 0.28 0.36 0.40 0.41 0.37 0.36 0.36 0.32 0.37
0.74 0.73 0.69 0.65 0.60 0.62 0.61 0.39 0.37 0.41 0.27 0.35 0.31 0.30 0.33 0.32 0.30 0.34 0.34 0.28 0.28 0.24 0.26 0.25 0.21 0.25 0.27 0.29 0.28 0.27 0.23 0.21 0.22 0.25 0.27 0.29 0.28 0.31 0.33 0.37 0.39 0.40 0.40 0.38 0.40
0.76 0.72 0.69 0.65 0.65 0.65 0.51 0.42 0.48 0.44 0.32 0.37 0.33 0.31 0.31 0.30 0.28 0.30 0.32 0.31 0.28 0.26 0.27 0.25 0.26 0.27 0.23 0.23 0.20 0.21 0.19 0.19 0.21 0.25 0.27 0.25 0.23 0.27 0.34 0.40 0.44 0.45 0.43 0.37 0.42
0.77 0.73 0.70 0.62 0.67 0.58 0.54 0.52 0.50 0.44 0.29 0.30 0.30 0.32 0.30 0.31 0.30 0.35 0.33 0.28 0.24 0.23 0.25 0.25 0.25 0.23 0.22 0.21 0.22 0.18 0.21 0.20 0.19 0.18 0.16 0.25 0.17 0.24 0.33 0.37 0.44 0.44 0.41 0.39 0.42
0.79 0.75 0.71 0.69 0.49 0.56 0.53 0.51 0.47 0.43 0.24 0.32 0.30 0.35 0.30 0.27 0.28 0.29 0.38 0.31 0.26 0.28 0.27 0.22 0.25 0.24 0.24 0.23 0.24 0.19 0.21 0.19 0.19 0.18 0.18 0.19 0.20 0.21 0.33 0.37 0.43 0.50 0.46 0.43 0.47
0.78 0.73 0.68 0.65 0.70 0.58 0.50 0.48 0.45 0.30 0.24 0.29 0.30 0.29 0.27 0.28 0.29 0.31 0.29 0.35 0.37 0.33 0.36 0.35 0.37 0.32 0.31 0.31 0.26 0.24 0.23 0.20 0.20 0.21 0.16 0.20 0.23 0.22 0.25 0.33 0.37 0.43 0.47 0.57 0.55
0.79 0.70 0.64 0.57 0.49 0.51 0.50 0.46 0.33 0.28 0.36 0.29 0.29 0.30 0.27 0.25 0.28 0.27 0.27 0.28 0.30 0.28 0.30 0.31 0.34 0.35 0.33 0.28 0.30 0.30 0.28 0.21 0.17 0.18 0.19 0.26 0.26 0.27 0.30 0.33 0.38 0.52 0.75 0.74 0.71
0.81 0.72 0.64 0.60 0.58 0.54 0.46 0.39 0.27 0.35 0.32 0.33 0.32 0.30 0.26 0.29 0.28 0.28 0.26 0.27 0.35 0.33 0.30 0.28 0.23 0.32 0.36 0.32 0.26 0.31 0.30 0.23 0.17 0.17 0.19 0.23 0.24 0.32 0.40 0.44 0.43 0.51 0.66 0.76 0.74
0.80 0.69 0.71 0.69 0.63 0.56 0.45 0.31 0.32 0.33 0.34 0.31 0.28 0.27 0.29 0.32 0.32 0.28 0.30 0.29 0.31 0.34 0.30 0.26 0.24 0.31 0.31 0.35 0.33 0.29 0.26 0.37 0.30 0.25 0.22 0.23 0.26 0.39 0.53 0.52 0.59 0.55 0.68 0.76 0.91
0.70 0.64 0.61 0.65 0.56 0.53 0.42 0.34 0.36 0.39 0.37 0.33 0.27 0.34 0.30 0.33 0.32 0.32 0.31 0.32 0.30 0.36 0.39 0.30 0.21 0.28 0.32 0.38 0.34 0.32 0.40 0.35 0.36 0.29 0.26 0.29 0.36 0.48 0.57 0.55 0.66 0.76 0.95 1.24 1.22
0.68 0.53 0.61 0.66 0.51 0.43 0.35 0.37 0.41 0.43 0.44 0.36 0.36 0.36 0.35 0.36 0.37 0.33 0.33 0.34 0.37 0.39 0.38 0.31 0.29 0.27 0.28 0.27 0.30 0.35 0.39 0.43 0.43 0.39 0.41 0.36 0.37 0.61 0.59 0.64 0.66 0.76 0.93 1.12 0.98
0.59 0.44 0.60 0.62 0.38 0.45 0.40 0.41 0.44 0.38 0.42 0.43 0.41 0.37 0.35 0.37 0.38 0.38 0.35 0.36 0.43 0.39 0.32 0.38 0.30 0.22 0.23 0.26 0.38 0.42 0.47 0.43 0.32 0.33 0.39 0.46 0.37 0.58 0.63 0.67 0.68 0.71 0.89 1.06 1.12
0.51 0.48 0.58 0.52 0.32 0.38 0.45 0.40 0.39 0.36 0.37 0.40 0.43 0.46 0.45 0.41 0.37 0.41 0.41 0.46 0.43 0.39 0.40 0.39 0.28 0.19 0.20 0.29 0.43 0.42 0.45 0.48 0.47 0.44 0.38 0.38 0.44 0.66 0.71 0.66 0.66 0.63 0.73 0.98 1.46
0.52 0.37 0.48 0.49 0.45 0.39 0.37 0.37 0.38 0.41 0.39 0.37 0.37 0.43 0.42 0.40 0.43 0.42 0.44 0.46 0.48 0.46 0.48 0.43 0.35 0.33 0.27 0.32 0.38 0.36 0.37 0.39 0.42 0.38 0.40 0.50 0.50 0.59 0.63 0.64 0.65 0.69 0.72 0.94 1.44
0.59 0.47 0.48 0.38 0.38 0.42 0.42 0.39 0.35 0.34 0.39 0.41 0.41 0.41 0.39 0.38 0.41 0.43 0.44 0.46 0.52 0.54 0.46 0.40 0.30 0.34 0.34 0.37 0.38 0.35 0.32 0.33 0.32 0.34 0.33 0.32 0.48 0.62 0.72 0.77 0.81 0.96 1.03 1.03 1.34
0.55 0.49 0.51 0.43 0.44 0.40 0.40 0.33 0.33 0.34 0.35 0.33 0.33 0.37 0.42 0.42 0.47 0.37 0.41 0.46 0.44 0.42 0.35 0.36 0.30 0.40 0.37 0.41 0.41 0.37 0.39 0.38 0.36 0.38 0.34 0.47 0.65 0.92 0.87 1.00 0.91 0.95 1.06 1.09 1.29
0.72 0.69 0.54 0.45 0.41 0.39 0.39 0.38 0.36 0.39 0.39 0.38 0.35 0.32 0.35 0.43 0.45 0.46 0.45 0.41 0.35 0.31 0.31 0.36 0.40 0.42 0.33 0.42 0.40 0.34 0.54 0.56 0.58 0.55 0.56 0.54 0.75 0.85 0.82 0.84 0.81 0.84 0.98 1.25 1.23

GFSSW_prec_pwat_102.txt.gz
Precipitable_Water
0.54 0.53 0.51 0.51 0.50 0.50 0.49 0.47 0.46 0.44 0.44 0.46 0.46 0.44 0.43 0.42 0.40 0.35 0.22 0.27 0.33 0.47 0.45 0.38 0.40 0.36 0.55 0.70 0.92 1.03 0.64 0.56 0.72 0.82 0.81 0.78 0.65 0.64 0.69 1.05 1.04 1.17 1.06 1.17 1.23
0.54 0.49 0.48 0.49 0.49 0.47 0.44 0.42 0.40 0.39 0.38 0.38 0.40 0.41 0.42 0.44 0.31 0.19 0.22 0.30 0.38 0.49 0.37 0.30 0.24 0.47 0.53 0.58 0.68 0.67 0.49 0.45 0.63 0.67 0.64 0.69 0.61 0.54 0.51 0.84 1.04 1.13 1.19 1.30 1.28
0.58 0.54 0.52 0.51 0.50 0.47 0.45 0.44 0.42 0.41 0.40 0.39 0.39 0.38 0.40 0.43 0.19 0.21 0.50 0.41 0.37 0.43 0.37 0.32 0.34 0.50 0.48 0.58 0.56 0.55 0.41 0.48 0.50 0.52 0.58 0.52 0.50 0.45 0.39 0.64 0.76 0.93 1.04 1.18 1.18
0.64 0.58 0.54 0.53 0.52 0.51 0.49 0.49 0.48 0.47 0.46 0.44 0.41 0.39 0.42 0.36 0.09 0.37 0.46 0.52 0.47 0.44 0.34 0.30 0.41 0.41 0.40 0.37 0.46 0.40 0.46 0.47 0.41 0.42 0.39 0.39 0.36 0.31 0.37 0.43 0.66 0.96 1.06 1.06 1.03
0.66 0.62 0.58 0.56 0.54 0.53 0.52 0.52 0.52 0.53 0.51 0.49 0.45 0.44 0.37 0.22 0.17 0.35 0.42 0.41 0.38 0.35 0.29 0.31 0.47 0.51 0.38 0.39 0.42 0.40 0.39 0.40 0.39 0.38 0.35 0.35 0.30 0.33 0.32 0.35 0.65 0.87 0.96 0.93 1.04
0.66 0.66 0.63 0.59 0.56 0.55 0.54 0.53 0.53 0.54 0.53 0.50 0.48 0.50 0.28 0.15 0.32 0.47 0.42 0.40 0.38 0.37 0.38 0.46 0.51 0.58 0.45 0.39 0.37 0.36 0.33 0.32 0.29 0.30 0.34 0.34 0.34 0.36 0.37 0.42 0.61 0.74 0.78 0.93 0.96
0.67 0.66 0.64 0.61 0.57 0.55 0.54 0.54 0.53 0.53 0.50 0.47 0.50 0.45 0.28 0.20 0.41 0.52 0.48 0.42 0.50 0.41 0.30 0.36 0.48 0.48 0.36 0.32 0.36 0.31 0.25 0.23 0.23 0.29 0.32 0.35 0.31 0.33 0.38 0.39 0.46 0.69 0.80 0.91 1.06
0.66 0.65 0.63 0.61 0.58 0.54 0.55 0.56 0.53 0.49 0.47 0.48 0.51 0.45 0.23 0.44 0.47 0.46 0.48 0.49 0.50 0.56 0.45 0.50 0.57 0.43 0.31 0.32 0.29 0.24 0.20 0.17 0.27 0.30 0.32 0.33 0.26 0.34 0.37 0.38 0.47 0.66 0.78 0.89 1.03
0.67 0.65 0.62 0.60 0.59 0.56 0.59 0.56 0.51 0.49 0.48 0.52 0.52 0.49 0.34 0.50 0.35 0.34 0.36 0.33 0.31 0.41 0.51 0.50 0.42 0.30 0.28 0.26 0.24 0.25 0.20 0.22 0.24 0.30 0.30 0.31 0.26 0.31 0.35 0.37 0.43 0.68 0.76 0.83 0.95
0.71 0.67 0.63 0.59 0.58 0.60 0.58 0.57 0.55 0.57 0.59 0.60 0.56 0.43 0.44 0.35 0.34 0.34 0.33 0.30 0.26 0.28 0.28 0.29 0.29 0.24 0.25 0.26 0.19 0.21 0.22 0.23 0.22 0.24 0.26 0.23 0.23 0.27 0.33 0.35 0.38 0.46 0.71 0.78 0.87
0.76 0.69 0.63 0.58 0.61 0.65 0.54 0.46 0.31 0.37 0.42 0.33 0.38 0.35 0.36 0.36 0.35 0.33 0.34 0.30 0.30 0.27 0.23 0.26 0.21 0.21 0.24 0.26 0.27 0.27 0.25 0.23 0.25 0.27 0.22 0.20 0.19 0.20 0.28 0.32 0.34 0.35 0.49 0.73 0.83
0.76 0.73 0.65 0.58 0.63 0.68 0.61 0.39 0.40 0.41 0.29 0.32 0.31 0.34 0.35 0.36 0.28 0.31 0.35 0.28 0.27 0.24 0.27 0.25 0.22 0.26 0.27 0.27 0.26 0.25 0.23 0.22 0.23 0.23 0.21 0.19 0.18 0.19 0.19 0.26 0.30 0.34 0.35 0.47 0.76
0.75 0.74 0.68 0.58 0.65 0.62 0.54 0.47 0.50 0.44 0.29 0.33 0.35 0.31 0.30 0.31 0.26 0.29 0.33 0.30 0.26 0.25 0.24 0.23 0.23 0.28 0.27 0.25 0.23 0.22 0.21 0.21 0.20 0.21 0.22 0.20 0.16 0.17 0.22 0.20 0.24 0.34 0.41 0.41 0.41
0.76 0.73 0.70 0.60 0.45 0.59 0.51 0.50 0.49 0.46 0.28 0.29 0.31 0.31 0.30 0.30 0.28 0.33 0.35 0.30 0.26 0.22 0.23 0.24 0.29 0.29 0.27 0.27 0.27 0.23 0.27 0.24 0.22 0.19 0.16 0.21 0.14 0.21 0.24 0.29 0.39 0.49 0.57 0.61 0.65
0.79 0.77 0.76 0.66 0.48 0.47 0.47 0.52 0.51 0.44 0.19 0.30 0.30 0.38 0.33 0.29 0.30 0.30 0.35 0.31 0.25 0.27 0.29 0.28 0.32 0.32 0.31 0.33 0.33 0.26 0.29 0.26 0.26 0.24 0.21 0.20 0.18 0.26 0.39 0.37 0.49 0.60 0.71 0.81 0.83
0.84 0.81 0.79 0.66 0.55 0.55 0.53 0.54 0.44 0.28 0.20 0.26 0.28 0.28 0.29 0.29 0.28 0.31 0.31 0.33 0.30 0.28 0.31 0.33 0.40 0.38 0.35 0.35 0.34 0.33 0.28 0.27 0.26 0.24 0.18 0.21 0.22 0.29 0.38 0.43 0.49 0.62 0.73 0.83 0.99
0.83 0.81 0.76 0.70 0.42 0.53 0.57 0.50 0.30 0.25 0.34 0.25 0.26 0.29 0.30 0.27 0.27 0.27 0.26 0.25 0.23 0.21 0.23 0.31 0.34 0.40 0.38 0.32 0.34 0.32 0.26 0.17 0.15 0.17 0.16 0.25 0.24 0.35 0.50 0.53 0.56 0.57 0.69 0.78 0.92
0.81 0.78 0.73 0.64 0.60 0.60 0.54 0.40 0.27 0.34 0.29 0.32 0.30 0.31 0.27 0.27 0.27 0.27 0.26 0.24 0.31 0.31 0.28 0.26 0.26 0.34 0.37 0.33 0.28 0.27 0.26 0.22 0.17 0.17 0.21 0.29 0.24 0.35 0.54 0.63 0.68 0.68 0.68 0.77 0.82
0.79 0.69 0.66 0.61 0.62 0.59 0.39 0.27 0.32 0.34 0.38 0.35 0.35 0.32 0.33 0.33 0.30 0.30 0.29 0.29 0.33 0.34 0.26 0.26 0.26 0.35 0.35 0.30 0.31 0.26 0.22 0.34 0.27 0.29 0.24 0.28 0.35 0.48 0.56 0.59 0.62 0.66 0.70 0.71 0.77
0.60 0.56 0.56 0.64 0.65 0.52 0.32 0.30 0.36 0.39 0.38 0.39 0.32 0.35 0.33 0.35 0.33 0.34 0.33 0.37 0.35 0.38 0.39 0.33 0.25 0.34 0.34 0.30 0.25 0.30 0.34 0.29 0.32 0.20 0.19 0.24 0.27 0.28 0.37 0.43 0.52 0.56 0.66 0.74 0.79
0.52 0.38 0.50 0.58 0.57 0.40 0.28 0.31 0.39 0.42 0.38 0.35 0.33 0.31 0.34 0.34 0.36 0.35 0.36 0.40 0.42 0.40 0.42 0.38 0.33 0.30 0.33 0.25 0.27 0.28 0.32 0.40 0.38 0.34 0.24 0.21 0.24 0.42 0.50 0.58 0.59 0.64 0.74 0.75 0.68
0.48 0.28 0.55 0.56 0.34 0.36 0.32 0.37 0.42 0.40 0.38 0.35 0.36 0.35 0.34 0.36 0.35 0.35 0.35 0.41 0.49 0.45 0.37 0.40 0.34 0.26 0.28 0.33 0.40 0.40 0.37 0.40 0.31 0.29 0.33 0.29 0.28 0.59 0.64 0.67 0.68 0.74 0.82 0.79 0.83
0.38 0.41 0.59 0.55 0.28 0.30 0.37 0.39 0.42 0.38 0.35 0.34 0.31 0.35 0.37 0.35 0.32 0.35 0.36 0.44 0.48 0.46 0.40 0.41 0.32 0.24 0.25 0.28 0.32 0.34 0.37 0.41 0.41 0.40 0.33 0.29 0.31 0.61 0.72 0.71 0.72 0.74 0.78 0.80 0.89
0.44 0.33 0.50 0.49 0.46 0.37 0.34 0.34 0.35 0.42 0.36 0.36 0.34 0.35 0.32 0.31 0.36 0.33 0.35 0.43 0.49 0.47 0.50 0.46 0.37 0.30 0.24 0.27 0.31 0.23 0.29 0.37 0.39 0.32 0.33 0.37 0.42 0.56 0.72 0.75 0.76 0.82 0.88 0.85 0.83
0.51 0.44 0.50 0.35 0.40 0.40 0.39 0.35 0.35 0.37 0.41 0.40 0.34 0.33 0.31 0.29 0.31 0.31 0.36 0.40 0.46 0.50 0.49 0.45 0.33 0.35 0.36 0.34 0.28 0.34 0.39 0.45 0.43 0.49 0.42 0.47 0.48 0.62 0.76 0.77 0.80 0.86 0.93 0.92 0.93
0.44 0.46 0.52 0.45 0.47 0.43 0.41 0.36 0.36 0.37 0.38 0.35 0.33 0.35 0.34 0.29 0.29 0.27 0.33 0.35 0.37 0.45 0.44 0.45 0.33 0.34 0.24 0.29 0.36 0.37 0.48 0.47 0.50 0.54 0.55 0.58 0.55 0.76 0.82 0.86 0.83 0.84 0.88 0.90 0.93
0.70 0.70 0.56 0.41 0.37 0.35 0.36 0.40 0.40 0.43 0.41 0.40 0.37 0.35 0.33 0.35 0.37 0.38 0.39 0.38 0.38 0.35 0.33 0.31 0.22 0.20 0.20 0.33 0.40 0.36 0.46 0.50 0.55 0.61 0.62 0.51 0.67 0.84 0.82 0.85 0.85 0.82 0.84 0.82 0.92

GFSSW_prec_pwat_105.txt.gz
Precipitable_Water
0.59 0.53 0.49 0.48 0.47 0.46 0.43 0.41 0.40 0.40 0.40 0.41 0.42 0.43 0.42 0.41 0.39 0.35 0.20 0.23 0.30 0.44 0.53 0.47 0.45 0.38 0.46 0.61 0.91 0.98 0.55 0.43 0.60 0.65 0.63 0.68 0.61 0.69 0.78 0.69 0.96 1.21 1.27 1.17 1.35
0.62 0.57 0.53 0.51 0.50 0.49 0.45 0.42 0.41 0.40 0.39 0.39 0.38 0.39 0.38 0.42 0.32 0.21 0.22 0.27 0.35 0.46 0.38 0.35 0.27 0.37 0.41 0.57 0.71 0.67 0.45 0.45 0.59 0.60 0.50 0.51 0.58 0.56 0.58 0.56 0.84 0.89 1.30 1.32 1.27
0.63 0.63 0.59 0.55 0.53 0.52 0.50 0.49 0.49 0.48 0.47 0.44 0.42 0.40 0.38 0.41 0.18 0.20 0.48 0.45 0.40 0.43 0.39 0.38 0.32 0.45 0.45 0.56 0.57 0.56 0.38 0.48 0.47 0.46 0.45 0.41 0.40 0.49 0.44 0.46 0.79 0.65 0.99 1.21 1.13
0.65 0.65 0.63 0.59 0.56 0.54 0.53 0.52 0.52 0.54 0.54 0.50 0.48 0.43 0.43 0.34 0.10 0.35 0.46 0.48 0.44 0.44 0.36 0.32 0.30 0.38 0.36 0.36 0.51 0.41 0.45 0.41 0.37 0.40 0.38 0.38 0.39 0.33 0.35 0.38 0.46 0.72 0.99 1.06 0.99
0.64 0.63 0.62 0.60 0.57 0.55 0.54 0.53 0.54 0.55 0.56 0.54 0.51 0.47 0.40 0.20 0.16 0.38 0.45 0.46 0.44 0.39 0.31 0.30 0.40 0.46 0.39 0.41 0.37 0.35 0.33 0.35 0.35 0.37 0.40 0.39 0.34 0.31 0.30 0.42 0.58 0.75 0.93 0.88 0.92
0.61 0.60 0.59 0.59 0.57 0.54 0.53 0.55 0.55 0.56 0.55 0.52 0.49 0.51 0.29 0.15 0.32 0.47 0.42 0.39 0.38 0.35 0.37 0.41 0.52 0.63 0.43 0.33 0.32 0.30 0.29 0.28 0.29 0.28 0.29 0.30 0.31 0.35 0.37 0.42 0.51 0.65 0.73 0.86 0.93
0.64 0.60 0.59 0.58 0.57 0.54 0.56 0.57 0.56 0.53 0.49 0.48 0.49 0.45 0.27 0.18 0.42 0.55 0.41 0.40 0.48 0.46 0.33 0.40 0.51 0.46 0.42 0.29 0.35 0.32 0.26 0.24 0.27 0.31 0.31 0.32 0.30 0.31 0.35 0.37 0.40 0.60 0.72 0.85 0.97
0.68 0.62 0.59 0.58 0.56 0.57 0.60 0.58 0.53 0.49 0.48 0.48 0.51 0.45 0.25 0.41 0.50 0.46 0.45 0.42 0.53 0.54 0.46 0.42 0.49 0.46 0.36 0.29 0.29 0.27 0.27 0.22 0.29 0.30 0.32 0.30 0.24 0.32 0.35 0.34 0.38 0.56 0.70 0.80 0.87
0.74 0.66 0.59 0.56 0.56 0.61 0.60 0.56 0.49 0.53 0.52 0.55 0.53 0.46 0.33 0.52 0.38 0.37 0.42 0.33 0.37 0.43 0.47 0.53 0.46 0.35 0.31 0.27 0.24 0.27 0.20 0.22 0.26 0.32 0.32 0.29 0.22 0.26 0.32 0.31 0.39 0.54 0.68 0.80 0.91
0.76 0.71 0.62 0.55 0.59 0.63 0.58 0.58 0.58 0.60 0.63 0.62 0.54 0.40 0.41 0.33 0.36 0.34 0.38 0.37 0.28 0.27 0.28 0.29 0.30 0.30 0.27 0.24 0.18 0.21 0.21 0.23 0.22 0.25 0.25 0.22 0.20 0.22 0.24 0.29 0.32 0.48 0.65 0.76 0.85
0.78 0.72 0.66 0.57 0.62 0.64 0.54 0.45 0.34 0.33 0.37 0.31 0.36 0.35 0.36 0.39 0.38 0.33 0.34 0.31 0.31 0.28 0.23 0.27 0.23 0.21 0.24 0.26 0.25 0.24 0.23 0.21 0.23 0.25 0.23 0.21 0.19 0.20 0.23 0.29 0.42 0.45 0.58 0.70 0.78
0.80 0.74 0.71 0.61 0.64 0.63 0.56 0.39 0.41 0.42 0.29 0.32 0.31 0.32 0.35 0.36 0.29 0.31 0.35 0.28 0.27 0.23 0.26 0.25 0.22 0.25 0.27 0.27 0.25 0.24 0.23 0.21 0.24 0.25 0.23 0.22 0.19 0.23 0.32 0.41 0.48 0.60 0.62 0.58 0.72
0.84 0.78 0.75 0.67 0.59 0.57 0.51 0.44 0.53 0.45 0.30 0.33 0.34 0.31 0.29 0.31 0.26 0.28 0.32 0.30 0.26 0.25 0.23 0.22 0.23 0.29 0.29 0.29 0.27 0.27 0.24 0.24 0.23 0.24 0.25 0.21 0.17 0.23 0.40 0.45 0.53 0.61 0.76 0.82 0.72
0.89 0.81 0.79 0.71 0.43 0.46 0.45 0.49 0.51 0.45 0.29 0.28 0.31 0.30 0.30 0.31 0.27 0.33 0.34 0.31 0.27 0.25 0.24 0.24 0.31 0.32 0.31 0.28 0.30 0.25 0.31 0.28 0.25 0.22 0.18 0.24 0.15 0.22 0.35 0.37 0.41 0.50 0.64 0.75 0.82
0.93 0.84 0.80 0.76 0.54 0.40 0.51 0.51 0.50 0.41 0.18 0.30 0.29 0.35 0.32 0.30 0.30 0.30 0.36 0.32 0.25 0.24 0.26 0.26 0.30 0.32 0.30 0.31 0.33 0.30 0.33 0.29 0.27 0.23 0.22 0.21 0.18 0.27 0.38 0.34 0.39 0.47 0.59 0.72 0.85
0.92 0.84 0.78 0.71 0.60 0.51 0.51 0.57 0.46 0.28 0.17 0.24 0.27 0.26 0.27 0.29 0.29 0.30 0.31 0.33 0.31 0.26 0.28 0.28 0.36 0.36 0.34 0.36 0.36 0.36 0.32 0.30 0.28 0.24 0.15 0.20 0.21 0.23 0.32 0.40 0.46 0.52 0.57 0.64 0.77
0.88 0.81 0.74 0.70 0.44 0.57 0.57 0.48 0.30 0.25 0.32 0.24 0.25 0.28 0.28 0.27 0.26 0.26 0.26 0.26 0.23 0.20 0.22 0.29 0.32 0.37 0.38 0.32 0.35 0.32 0.25 0.18 0.15 0.16 0.15 0.25 0.23 0.29 0.44 0.54 0.57 0.58 0.63 0.68 0.75
0.85 0.74 0.72 0.63 0.61 0.60 0.50 0.35 0.25 0.32 0.30 0.33 0.31 0.31 0.28 0.29 0.27 0.26 0.24 0.23 0.30 0.29 0.26 0.25 0.24 0.33 0.38 0.32 0.27 0.27 0.25 0.19 0.15 0.17 0.19 0.27 0.22 0.34 0.50 0.62 0.62 0.65 0.65 0.71 0.75
0.76 0.60 0.61 0.62 0.66 0.59 0.36 0.24 0.28 0.31 0.35 0.33 0.33 0.30 0.32 0.34 0.33 0.32 0.31 0.31 0.34 0.35 0.26 0.26 0.26 0.37 0.38 0.37 0.33 0.26 0.20 0.29 0.26 0.29 0.23 0.25 0.31 0.36 0.48 0.49 0.55 0.58 0.64 0.62 0.66
0.53 0.45 0.50 0.64 0.63 0.49 0.30 0.28 0.33 0.37 0.37 0.37 0.29 0.32 0.29 0.33 0.33 0.32 0.32 0.36 0.35 0.39 0.40 0.34 0.26 0.36 0.38 0.39 0.34 0.32 0.36 0.27 0.32 0.20 0.19 0.24 0.26 0.27 0.34 0.41 0.54 0.61 0.67 0.69 0.72
0.48 0.32 0.49 0.59 0.53 0.37 0.25 0.30 0.35 0.41 0.38 0.31 0.31 0.31 0.33 0.32 0.34 0.33 0.34 0.38 0.41 0.40 0.42 0.38 0.32 0.31 0.35 0.32 0.30 0.32 0.31 0.34 0.33 0.31 0.24 0.21 0.25 0.43 0.45 0.50 0.50 0.60 0.74 0.74 0.79
0.40 0.23 0.51 0.56 0.32 0.34 0.29 0.35 0.42 0.38 0.37 0.34 0.35 0.33 0.32 0.33 0.32 0.33 0.34 0.38 0.46 0.44 0.37 0.39 0.33 0.26 0.29 0.39 0.38 0.35 0.32 0.33 0.29 0.27 0.31 0.29 0.26 0.57 0.63 0.66 0.64 0.72 0.81 0.83 0.84
0.33 0.35 0.59 0.51 0.27 0.28 0.36 0.37 0.41 0.38 0.36 0.33 0.30 0.31 0.33 0.30 0.28 0.34 0.36 0.44 0.45 0.42 0.38 0.40 0.32 0.25 0.27 0.33 0.37 0.33 0.34 0.34 0.39 0.40 0.32 0.29 0.29 0.61 0.69 0.72 0.80 0.85 0.91 0.89 0.87
0.40 0.26 0.47 0.47 0.44 0.34 0.31 0.32 0.34 0.43 0.37 0.37 0.32 0.34 0.31 0.28 0.33 0.30 0.33 0.41 0.46 0.45 0.47 0.45 0.36 0.31 0.26 0.30 0.35 0.29 0.29 0.30 0.34 0.29 0.31 0.33 0.38 0.50 0.60 0.64 0.73 0.85 0.97 0.96 0.92
0.44 0.36 0.49 0.36 0.39 0.39 0.37 0.35 0.33 0.35 0.42 0.40 0.34 0.31 0.29 0.26 0.28 0.27 0.31 0.33 0.37 0.44 0.41 0.40 0.32 0.36 0.36 0.37 0.34 0.30 0.30 0.33 0.38 0.41 0.34 0.36 0.42 0.53 0.66 0.71 0.78 0.90 0.99 0.97 1.02
0.42 0.39 0.48 0.44 0.47 0.41 0.40 0.35 0.33 0.35 0.38 0.38 0.34 0.35 0.34 0.29 0.29 0.26 0.28 0.29 0.28 0.35 0.35 0.39 0.31 0.34 0.29 0.32 0.23 0.26 0.32 0.39 0.44 0.48 0.48 0.52 0.50 0.71 0.79 0.83 0.85 0.90 0.90 0.90 0.95
0.62 0.64 0.51 0.42 0.39 0.37 0.37 0.39 0.38 0.40 0.40 0.40 0.37 0.35 0.33 0.33 0.37 0.37 0.37 0.35 0.33 0.29 0.27 0.29 0.29 0.26 0.20 0.21 0.26 0.22 0.33 0.45 0.49 0.54 0.53 0.44 0.57 0.74 0.75 0.78 0.84 0.87 0.90 0.88 0.90

GFSSW_prec_pwat_108.txt.gz
Precipitable_Water
0.62 0.61 0.58 0.54 0.51 0.50 0.48 0.45 0.43 0.43 0.42 0.40 0.39 0.39 0.42 0.41 0.39 0.34 0.19 0.22 0.30 0.41 0.52 0.54 0.49 0.40 0.62 0.61 0.82 0.93 0.46 0.39 0.52 0.57 0.59 0.62 0.51 0.55 0.60 0.56 0.82 0.91 1.03 1.35 1.33
0.63 0.63 0.61 0.58 0.55 0.53 0.51 0.49 0.47 0.47 0.47 0.44 0.42 0.39 0.38 0.39 0.29 0.22 0.24 0.27 0.34 0.48 0.41 0.36 0.32 0.33 0.34 0.53 0.69 0.62 0.39 0.39 0.55 0.53 0.51 0.56 0.50 0.47 0.48 0.46 0.66 0.74 0.92 1.25 1.42
0.60 0.60 0.60 0.58 0.56 0.54 0.53 0.53 0.52 0.53 0.53 0.51 0.48 0.44 0.40 0.40 0.18 0.21 0.45 0.47 0.41 0.45 0.38 0.37 0.36 0.38 0.40 0.60 0.62 0.58 0.38 0.45 0.43 0.40 0.39 0.40 0.36 0.48 0.45 0.37 0.49 0.51 0.69 1.04 1.25
0.61 0.59 0.58 0.57 0.57 0.55 0.54 0.54 0.55 0.55 0.55 0.55 0.53 0.47 0.45 0.34 0.14 0.35 0.49 0.52 0.43 0.43 0.34 0.32 0.31 0.33 0.36 0.39 0.54 0.41 0.45 0.38 0.34 0.37 0.38 0.36 0.39 0.35 0.36 0.35 0.44 0.50 0.73 0.95 1.04
0.64 0.59 0.57 0.57 0.56 0.56 0.55 0.56 0.57 0.57 0.58 0.57 0.53 0.48 0.41 0.19 0.16 0.43 0.50 0.51 0.51 0.42 0.32 0.29 0.28 0.39 0.37 0.41 0.37 0.33 0.30 0.32 0.35 0.36 0.35 0.34 0.30 0.32 0.33 0.35 0.39 0.50 0.73 0.81 0.91
0.70 0.63 0.57 0.55 0.55 0.56 0.59 0.59 0.57 0.56 0.54 0.52 0.49 0.51 0.28 0.17 0.31 0.51 0.47 0.47 0.42 0.36 0.34 0.38 0.46 0.59 0.43 0.34 0.30 0.30 0.29 0.29 0.28 0.27 0.30 0.29 0.29 0.32 0.33 0.39 0.41 0.58 0.68 0.81 0.91
0.76 0.68 0.59 0.55 0.55 0.60 0.62 0.58 0.56 0.51 0.49 0.47 0.48 0.46 0.25 0.20 0.43 0.55 0.44 0.39 0.47 0.45 0.36 0.48 0.59 0.50 0.39 0.31 0.32 0.29 0.24 0.26 0.29 0.30 0.30 0.31 0.28 0.28 0.32 0.34 0.34 0.47 0.68 0.79 0.92
0.81 0.74 0.65 0.57 0.57 0.62 0.60 0.55 0.52 0.52 0.49 0.49 0.56 0.46 0.24 0.37 0.49 0.47 0.45 0.41 0.56 0.54 0.44 0.42 0.47 0.40 0.36 0.34 0.31 0.27 0.28 0.22 0.27 0.30 0.30 0.30 0.23 0.28 0.32 0.31 0.31 0.47 0.60 0.73 0.86
0.84 0.78 0.71 0.61 0.59 0.62 0.59 0.52 0.51 0.54 0.55 0.60 0.55 0.46 0.32 0.52 0.40 0.40 0.43 0.36 0.45 0.49 0.47 0.52 0.45 0.36 0.36 0.28 0.24 0.27 0.20 0.22 0.24 0.30 0.29 0.27 0.24 0.30 0.45 0.36 0.33 0.46 0.56 0.69 0.82
0.87 0.81 0.75 0.67 0.62 0.61 0.58 0.58 0.57 0.60 0.61 0.65 0.53 0.38 0.40 0.34 0.37 0.36 0.41 0.39 0.32 0.28 0.29 0.31 0.31 0.29 0.28 0.25 0.18 0.20 0.21 0.22 0.22 0.27 0.28 0.24 0.24 0.32 0.44 0.42 0.40 0.42 0.57 0.67 0.72
0.89 0.84 0.77 0.71 0.62 0.61 0.55 0.46 0.35 0.33 0.36 0.28 0.34 0.36 0.36 0.39 0.38 0.34 0.35 0.35 0.32 0.29 0.23 0.26 0.23 0.22 0.24 0.26 0.25 0.25 0.23 0.22 0.24 0.27 0.24 0.22 0.24 0.32 0.42 0.48 0.50 0.51 0.49 0.59 0.68
0.91 0.85 0.78 0.72 0.60 0.60 0.54 0.37 0.40 0.40 0.27 0.35 0.33 0.31 0.34 0.36 0.28 0.31 0.35 0.28 0.27 0.23 0.26 0.25 0.22 0.27 0.30 0.30 0.28 0.27 0.24 0.24 0.26 0.27 0.25 0.22 0.22 0.34 0.39 0.46 0.55 0.58 0.64 0.67 0.68
0.92 0.88 0.79 0.73 0.56 0.44 0.47 0.42 0.51 0.43 0.29 0.32 0.33 0.31 0.31 0.32 0.26 0.28 0.32 0.30 0.27 0.25 0.24 0.22 0.25 0.32 0.31 0.29 0.28 0.28 0.27 0.26 0.25 0.27 0.28 0.25 0.21 0.27 0.40 0.45 0.50 0.56 0.64 0.70 0.74
0.94 0.89 0.82 0.72 0.51 0.50 0.44 0.50 0.51 0.44 0.26 0.26 0.30 0.30 0.31 0.31 0.26 0.33 0.34 0.31 0.28 0.25 0.27 0.26 0.32 0.32 0.31 0.30 0.30 0.27 0.33 0.30 0.28 0.26 0.21 0.26 0.17 0.22 0.33 0.35 0.42 0.47 0.51 0.57 0.64
0.95 0.88 0.82 0.76 0.59 0.43 0.45 0.50 0.53 0.42 0.16 0.28 0.29 0.35 0.31 0.28 0.28 0.29 0.36 0.32 0.27 0.26 0.27 0.25 0.28 0.29 0.30 0.32 0.34 0.29 0.33 0.30 0.30 0.27 0.24 0.24 0.19 0.22 0.33 0.30 0.35 0.43 0.48 0.55 0.65
0.92 0.86 0.78 0.70 0.58 0.50 0.56 0.57 0.47 0.27 0.16 0.24 0.27 0.26 0.26 0.29 0.29 0.30 0.30 0.33 0.33 0.28 0.28 0.28 0.35 0.34 0.33 0.36 0.35 0.35 0.31 0.29 0.28 0.25 0.17 0.22 0.21 0.20 0.30 0.36 0.44 0.50 0.52 0.56 0.59
0.86 0.81 0.72 0.69 0.44 0.57 0.57 0.45 0.27 0.22 0.32 0.25 0.26 0.30 0.28 0.28 0.27 0.26 0.25 0.25 0.24 0.20 0.21 0.28 0.31 0.36 0.37 0.31 0.34 0.32 0.27 0.18 0.15 0.15 0.14 0.24 0.21 0.25 0.41 0.48 0.48 0.48 0.52 0.57 0.62
0.77 0.71 0.68 0.65 0.67 0.63 0.45 0.32 0.21 0.29 0.28 0.33 0.31 0.31 0.29 0.32 0.30 0.28 0.25 0.25 0.31 0.30 0.27 0.25 0.24 0.34 0.39 0.34 0.31 0.30 0.26 0.17 0.12 0.14 0.17 0.27 0.20 0.29 0.44 0.51 0.52 0.56 0.60 0.61 0.59
0.58 0.51 0.53 0.58 0.65 0.59 0.35 0.21 0.25 0.29 0.33 0.31 0.32 0.29 0.30 0.34 0.33 0.32 0.32 0.32 0.34 0.35 0.27 0.26 0.26 0.38 0.40 0.39 0.35 0.29 0.25 0.31 0.24 0.27 0.22 0.23 0.28 0.35 0.45 0.45 0.48 0.51 0.61 0.62 0.63
0.43 0.39 0.44 0.57 0.61 0.44 0.28 0.24 0.30 0.36 0.36 0.34 0.28 0.30 0.27 0.30 0.31 0.32 0.32 0.36 0.35 0.39 0.41 0.34 0.26 0.36 0.37 0.38 0.39 0.35 0.38 0.27 0.29 0.18 0.16 0.21 0.24 0.23 0.32 0.36 0.48 0.50 0.54 0.65 0.70
0.37 0.25 0.46 0.56 0.48 0.32 0.21 0.26 0.32 0.38 0.36 0.30 0.29 0.31 0.32 0.32 0.34 0.33 0.34 0.39 0.42 0.41 0.43 0.39 0.33 0.31 0.36 0.32 0.30 0.31 0.27 0.29 0.31 0.30 0.22 0.18 0.23 0.37 0.39 0.50 0.52 0.58 0.62 0.69 0.77
0.32 0.16 0.47 0.52 0.28 0.29 0.24 0.31 0.39 0.37 0.38 0.33 0.34 0.32 0.31 0.32 0.31 0.32 0.33 0.38 0.46 0.44 0.36 0.40 0.34 0.28 0.31 0.38 0.40 0.37 0.34 0.32 0.24 0.23 0.28 0.28 0.24 0.45 0.56 0.63 0.68 0.69 0.75 0.81 0.87
0.28 0.26 0.54 0.47 0.21 0.25 0.32 0.33 0.38 0.37 0.36 0.34 0.31 0.32 0.33 0.29 0.26 0.33 0.36 0.44 0.46 0.42 0.38 0.40 0.32 0.26 0.29 0.34 0.39 0.35 0.37 0.35 0.34 0.33 0.24 0.23 0.22 0.46 0.60 0.65 0.72 0.70 0.76 0.86 0.90
0.34 0.20 0.41 0.43 0.41 0.31 0.28 0.30 0.32 0.43 0.38 0.39 0.35 0.34 0.32 0.29 0.32 0.29 0.30 0.37 0.41 0.43 0.46 0.44 0.35 0.30 0.24 0.30 0.35 0.31 0.31 0.31 0.31 0.25 0.26 0.28 0.31 0.42 0.54 0.61 0.70 0.73 0.80 0.88 0.92
0.42 0.32 0.40 0.32 0.36 0.38 0.35 0.32 0.30 0.32 0.41 0.42 0.35 0.32 0.29 0.25 0.27 0.27 0.30 0.30 0.33 0.38 0.38 0.36 0.27 0.30 0.32 0.34 0.35 0.30 0.25 0.22 0.26 0.27 0.29 0.30 0.36 0.45 0.57 0.64 0.71 0.80 0.84 0.86 0.89
0.37 0.36 0.46 0.39 0.45 0.40 0.38 0.34 0.31 0.34 0.37 0.36 0.33 0.34 0.33 0.29 0.29 0.26 0.29 0.28 0.26 0.31 0.30 0.32 0.24 0.27 0.23 0.27 0.28 0.25 0.22 0.24 0.28 0.38 0.43 0.45 0.42 0.64 0.72 0.76 0.73 0.79 0.85 0.85 0.89
0.56 0.60 0.49 0.39 0.36 0.33 0.36 0.38 0.37 0.39 0.39 0.40 0.38 0.36 0.34 0.36 0.38 0.38 0.37 0.36 0.34 0.29 0.25 0.26 0.23 0.22 0.16 0.21 0.23 0.16 0.18 0.30 0.42 0.52 0.51 0.42 0.55 0.70 0.67 0.69 0.71 0.78 0.86 0.89 0.92

GFSSW_prec_pwat_111.txt.gz
Precipitable_Water
0.57 0.57 0.56 0.55 0.53 0.51 0.50 0.48 0.47 0.46 0.45 0.43 0.41 0.40 0.41 0.41 0.41 0.35 0.19 0.22 0.28 0.44 0.56 0.54 0.47 0.47 0.72 0.66 0.77 0.84 0.41 0.34 0.41 0.47 0.56 0.62 0.53 0.52 0.53 0.52 0.76 0.83 0.80 1.07 1.41
0.59 0.57 0.56 0.56 0.55 0.54 0.54 0.53 0.52 0.52 0.53 0.50 0.46 0.42 0.40 0.39 0.28 0.21 0.25 0.27 0.33 0.47 0.42 0.36 0.33 0.38 0.37 0.48 0.65 0.57 0.34 0.34 0.47 0.46 0.48 0.56 0.59 0.52 0.49 0.44 0.49 0.59 0.84 1.08 1.27
0.64 0.60 0.57 0.56 0.55 0.56 0.56 0.55 0.55 0.55 0.56 0.55 0.53 0.48 0.42 0.41 0.19 0.21 0.45 0.43 0.41 0.45 0.43 0.39 0.38 0.35 0.40 0.58 0.60 0.56 0.38 0.43 0.37 0.37 0.37 0.36 0.47 0.50 0.40 0.37 0.39 0.41 0.65 0.92 1.07
0.71 0.64 0.59 0.56 0.56 0.56 0.57 0.57 0.58 0.58 0.58 0.58 0.57 0.52 0.46 0.34 0.17 0.32 0.50 0.50 0.51 0.45 0.37 0.33 0.35 0.33 0.37 0.40 0.55 0.39 0.43 0.40 0.34 0.35 0.36 0.34 0.36 0.33 0.34 0.33 0.37 0.39 0.72 0.82 0.91
0.79 0.71 0.64 0.59 0.57 0.59 0.60 0.59 0.58 0.57 0.56 0.56 0.55 0.50 0.41 0.18 0.23 0.50 0.53 0.54 0.55 0.40 0.31 0.29 0.28 0.34 0.35 0.42 0.37 0.34 0.33 0.30 0.33 0.33 0.31 0.30 0.28 0.28 0.29 0.33 0.36 0.42 0.64 0.71 0.84
0.85 0.79 0.71 0.63 0.58 0.62 0.61 0.59 0.57 0.54 0.51 0.50 0.48 0.51 0.27 0.18 0.33 0.56 0.51 0.48 0.43 0.39 0.34 0.35 0.36 0.54 0.45 0.37 0.30 0.31 0.29 0.28 0.29 0.29 0.30 0.29 0.28 0.28 0.28 0.32 0.35 0.50 0.61 0.78 0.87
0.87 0.84 0.78 0.68 0.60 0.63 0.60 0.55 0.52 0.52 0.49 0.47 0.48 0.44 0.23 0.25 0.46 0.55 0.46 0.43 0.49 0.45 0.35 0.48 0.69 0.51 0.40 0.30 0.30 0.30 0.24 0.27 0.29 0.29 0.29 0.32 0.26 0.27 0.41 0.35 0.34 0.48 0.65 0.79 0.88
0.88 0.85 0.80 0.73 0.61 0.62 0.60 0.52 0.51 0.52 0.51 0.53 0.59 0.44 0.22 0.38 0.53 0.50 0.45 0.47 0.53 0.51 0.44 0.46 0.49 0.39 0.34 0.35 0.33 0.28 0.27 0.23 0.27 0.29 0.30 0.31 0.24 0.33 0.51 0.45 0.38 0.48 0.60 0.73 0.87
0.88 0.85 0.80 0.75 0.63 0.60 0.59 0.57 0.56 0.57 0.58 0.64 0.54 0.44 0.30 0.52 0.40 0.41 0.46 0.43 0.48 0.50 0.51 0.51 0.44 0.34 0.37 0.28 0.23 0.27 0.20 0.22 0.24 0.29 0.29 0.28 0.25 0.37 0.51 0.51 0.44 0.45 0.56 0.68 0.86
0.89 0.85 0.80 0.74 0.62 0.60 0.58 0.60 0.59 0.60 0.61 0.62 0.53 0.38 0.38 0.33 0.38 0.37 0.43 0.43 0.35 0.32 0.34 0.35 0.33 0.30 0.28 0.25 0.18 0.20 0.21 0.22 0.22 0.27 0.28 0.27 0.31 0.38 0.43 0.48 0.49 0.50 0.52 0.64 0.76
0.89 0.86 0.80 0.72 0.59 0.59 0.52 0.44 0.34 0.33 0.34 0.28 0.34 0.37 0.37 0.39 0.39 0.35 0.38 0.36 0.32 0.28 0.23 0.27 0.24 0.22 0.24 0.27 0.27 0.26 0.24 0.23 0.26 0.28 0.27 0.27 0.30 0.34 0.41 0.46 0.47 0.50 0.58 0.63 0.71
0.90 0.86 0.81 0.71 0.60 0.53 0.50 0.36 0.38 0.40 0.28 0.36 0.33 0.32 0.36 0.37 0.29 0.32 0.36 0.28 0.26 0.23 0.27 0.25 0.24 0.29 0.30 0.30 0.28 0.27 0.26 0.26 0.28 0.29 0.27 0.25 0.29 0.34 0.38 0.40 0.43 0.45 0.51 0.58 0.66
0.91 0.88 0.81 0.71 0.61 0.53 0.47 0.41 0.50 0.45 0.31 0.31 0.33 0.31 0.31 0.33 0.28 0.29 0.32 0.30 0.27 0.25 0.24 0.24 0.28 0.33 0.31 0.30 0.28 0.29 0.28 0.28 0.27 0.29 0.29 0.26 0.24 0.31 0.38 0.42 0.45 0.47 0.49 0.54 0.59
0.91 0.88 0.80 0.71 0.55 0.51 0.45 0.50 0.54 0.49 0.25 0.25 0.27 0.30 0.32 0.32 0.27 0.33 0.34 0.31 0.28 0.26 0.27 0.27 0.32 0.32 0.32 0.31 0.32 0.27 0.33 0.31 0.28 0.27 0.23 0.28 0.18 0.24 0.33 0.37 0.42 0.46 0.48 0.50 0.54
0.87 0.86 0.78 0.74 0.56 0.41 0.44 0.57 0.55 0.44 0.15 0.27 0.28 0.35 0.31 0.28 0.28 0.29 0.35 0.32 0.27 0.27 0.28 0.26 0.29 0.29 0.29 0.31 0.33 0.29 0.34 0.31 0.29 0.26 0.24 0.25 0.20 0.22 0.31 0.34 0.41 0.45 0.50 0.52 0.55
0.79 0.80 0.76 0.68 0.58 0.51 0.57 0.56 0.48 0.27 0.16 0.24 0.28 0.27 0.27 0.29 0.29 0.30 0.30 0.34 0.33 0.29 0.29 0.28 0.35 0.34 0.32 0.34 0.35 0.35 0.32 0.30 0.29 0.25 0.18 0.24 0.22 0.19 0.27 0.33 0.39 0.43 0.48 0.53 0.55
0.65 0.69 0.67 0.68 0.48 0.63 0.57 0.43 0.26 0.20 0.32 0.25 0.27 0.30 0.29 0.29 0.29 0.28 0.27 0.26 0.25 0.22 0.22 0.29 0.30 0.35 0.38 0.32 0.35 0.34 0.28 0.20 0.18 0.17 0.15 0.25 0.20 0.22 0.36 0.43 0.42 0.39 0.44 0.56 0.59
0.43 0.52 0.57 0.60 0.64 0.64 0.46 0.30 0.19 0.27 0.26 0.32 0.30 0.31 0.28 0.32 0.32 0.29 0.27 0.27 0.32 0.30 0.28 0.26 0.25 0.33 0.39 0.36 0.32 0.31 0.28 0.20 0.14 0.14 0.16 0.27 0.19 0.27 0.42 0.48 0.49 0.50 0.51 0.61 0.65
0.39 0.40 0.47 0.53 0.60 0.53 0.35 0.19 0.22 0.26 0.32 0.30 0.31 0.28 0.29 0.33 0.33 0.32 0.31 0.31 0.34 0.36 0.28 0.26 0.27 0.38 0.40 0.41 0.38 0.32 0.27 0.32 0.26 0.28 0.21 0.24 0.28 0.34 0.43 0.45 0.49 0.48 0.54 0.58 0.66
0.31 0.29 0.38 0.54 0.57 0.40 0.26 0.20 0.27 0.33 0.33 0.31 0.26 0.29 0.26 0.29 0.30 0.31 0.31 0.36 0.35 0.39 0.40 0.34 0.27 0.36 0.39 0.40 0.40 0.35 0.37 0.25 0.26 0.18 0.16 0.21 0.23 0.21 0.30 0.36 0.45 0.50 0.55 0.65 0.76
0.28 0.19 0.41 0.53 0.45 0.29 0.18 0.23 0.30 0.36 0.35 0.29 0.27 0.28 0.31 0.31 0.33 0.32 0.34 0.40 0.43 0.42 0.43 0.39 0.34 0.32 0.37 0.33 0.31 0.31 0.29 0.31 0.30 0.28 0.19 0.17 0.21 0.33 0.32 0.43 0.48 0.55 0.66 0.74 0.78
0.31 0.12 0.42 0.48 0.25 0.27 0.22 0.28 0.36 0.35 0.36 0.31 0.32 0.31 0.30 0.31 0.32 0.33 0.33 0.39 0.47 0.44 0.36 0.40 0.34 0.27 0.30 0.37 0.39 0.36 0.33 0.32 0.25 0.24 0.27 0.24 0.20 0.36 0.44 0.50 0.59 0.63 0.69 0.75 0.83
0.28 0.24 0.46 0.44 0.18 0.21 0.29 0.30 0.34 0.35 0.34 0.32 0.29 0.32 0.32 0.29 0.27 0.33 0.35 0.44 0.45 0.41 0.38 0.39 0.32 0.25 0.28 0.33 0.37 0.34 0.35 0.34 0.32 0.29 0.23 0.22 0.21 0.38 0.47 0.55 0.63 0.66 0.71 0.78 0.84
0.33 0.21 0.39 0.41 0.38 0.28 0.26 0.27 0.28 0.40 0.37 0.39 0.34 0.34 0.31 0.30 0.33 0.29 0.30 0.36 0.40 0.40 0.41 0.40 0.32 0.28 0.22 0.27 0.32 0.29 0.31 0.32 0.28 0.20 0.19 0.21 0.23 0.33 0.47 0.54 0.62 0.71 0.75 0.80 0.86
0.40 0.31 0.41 0.32 0.36 0.35 0.33 0.30 0.27 0.29 0.39 0.40 0.35 0.33 0.31 0.28 0.29 0.28 0.30 0.31 0.35 0.38 0.37 0.33 0.25 0.28 0.26 0.29 0.31 0.27 0.26 0.26 0.24 0.22 0.19 0.19 0.29 0.42 0.54 0.60 0.66 0.71 0.75 0.78 0.84
0.33 0.36 0.44 0.39 0.45 0.38 0.36 0.32 0.30 0.32 0.35 0.33 0.33 0.36 0.35 0.31 0.31 0.28 0.31 0.31 0.31 0.34 0.31 0.33 0.24 0.26 0.22 0.25 0.26 0.22 0.23 0.23 0.23 0.23 0.28 0.34 0.39 0.59 0.67 0.74 0.70 0.74 0.77 0.77 0.86
0.50 0.53 0.45 0.38 0.36 0.32 0.34 0.38 0.36 0.38 0.39 0.41 0.40 0.36 0.35 0.37 0.42 0.40 0.40 0.39 0.36 0.29 0.25 0.24 0.22 0.21 0.15 0.21 0.21 0.18 0.19 0.23 0.31 0.42 0.47 0.40 0.49 0.63 0.66 0.68 0.71 0.75 0.82 0.88 0.92

GFSSW_prec_pwat_114.txt.gz
Precipitable_Water
0.62 0.59 0.57 0.55 0.54 0.53 0.53 0.52 0.50 0.49 0.47 0.46 0.43 0.40 0.40 0.41 0.41 0.37 0.21 0.26 0.28 0.42 0.55 0.56 0.47 0.55 0.71 0.70 0.73 0.81 0.42 0.37 0.44 0.42 0.48 0.60 0.57 0.55 0.54 0.52 0.60 0.76 0.81 1.03 1.25
0.69 0.65 0.61 0.58 0.56 0.55 0.56 0.55 0.54 0.54 0.54 0.53 0.49 0.45 0.41 0.39 0.29 0.22 0.27 0.28 0.36 0.49 0.46 0.39 0.34 0.41 0.49 0.47 0.60 0.57 0.37 0.35 0.47 0.43 0.41 0.50 0.53 0.56 0.51 0.45 0.42 0.57 0.92 1.03 1.13
0.79 0.73 0.67 0.62 0.58 0.57 0.57 0.57 0.58 0.58 0.59 0.56 0.54 0.50 0.44 0.42 0.24 0.22 0.41 0.36 0.38 0.46 0.44 0.43 0.40 0.38 0.36 0.52 0.58 0.56 0.38 0.44 0.41 0.37 0.35 0.36 0.39 0.43 0.42 0.40 0.37 0.37 0.71 0.94 1.01
0.83 0.80 0.74 0.67 0.59 0.60 0.60 0.59 0.59 0.59 0.60 0.60 0.58 0.54 0.45 0.40 0.21 0.32 0.49 0.45 0.46 0.46 0.41 0.36 0.35 0.34 0.36 0.42 0.54 0.41 0.44 0.40 0.34 0.33 0.31 0.30 0.30 0.30 0.33 0.33 0.35 0.37 0.49 0.94 0.96
0.86 0.83 0.79 0.72 0.62 0.62 0.61 0.59 0.57 0.56 0.55 0.55 0.55 0.51 0.41 0.24 0.25 0.52 0.58 0.52 0.54 0.41 0.35 0.31 0.31 0.34 0.34 0.41 0.42 0.35 0.34 0.32 0.31 0.31 0.29 0.29 0.28 0.27 0.29 0.39 0.37 0.47 0.57 0.89 0.98
0.87 0.84 0.80 0.76 0.63 0.62 0.60 0.54 0.52 0.52 0.49 0.48 0.48 0.50 0.32 0.18 0.40 0.55 0.53 0.53 0.50 0.39 0.35 0.33 0.32 0.44 0.47 0.40 0.31 0.32 0.30 0.28 0.30 0.30 0.31 0.29 0.27 0.29 0.38 0.45 0.42 0.58 0.65 0.82 0.94
0.87 0.84 0.80 0.77 0.64 0.61 0.60 0.52 0.52 0.51 0.48 0.46 0.46 0.44 0.29 0.26 0.50 0.53 0.50 0.49 0.49 0.41 0.34 0.40 0.57 0.55 0.43 0.34 0.31 0.30 0.25 0.28 0.29 0.29 0.29 0.31 0.29 0.31 0.44 0.50 0.44 0.57 0.71 0.83 0.94
0.88 0.85 0.80 0.76 0.65 0.60 0.58 0.55 0.53 0.52 0.51 0.56 0.56 0.43 0.24 0.40 0.57 0.49 0.46 0.48 0.51 0.49 0.46 0.55 0.59 0.47 0.35 0.34 0.33 0.28 0.27 0.25 0.29 0.29 0.29 0.30 0.29 0.37 0.49 0.53 0.50 0.54 0.71 0.81 0.97
0.88 0.85 0.80 0.73 0.64 0.60 0.57 0.58 0.57 0.56 0.58 0.63 0.55 0.45 0.29 0.47 0.42 0.48 0.45 0.45 0.49 0.51 0.47 0.46 0.44 0.37 0.35 0.31 0.25 0.27 0.23 0.24 0.25 0.30 0.29 0.29 0.29 0.39 0.49 0.55 0.55 0.58 0.65 0.79 0.90
0.87 0.85 0.81 0.73 0.64 0.57 0.56 0.59 0.58 0.59 0.59 0.58 0.52 0.40 0.38 0.35 0.38 0.41 0.49 0.47 0.36 0.39 0.39 0.39 0.36 0.33 0.29 0.26 0.23 0.23 0.23 0.24 0.25 0.29 0.29 0.30 0.33 0.41 0.45 0.48 0.51 0.59 0.66 0.71 0.80
0.86 0.84 0.80 0.72 0.63 0.56 0.54 0.49 0.39 0.37 0.35 0.31 0.34 0.39 0.38 0.38 0.38 0.36 0.40 0.39 0.33 0.29 0.26 0.28 0.26 0.25 0.27 0.28 0.27 0.26 0.25 0.24 0.29 0.30 0.29 0.32 0.32 0.35 0.41 0.43 0.43 0.49 0.58 0.65 0.74
0.83 0.82 0.79 0.71 0.61 0.56 0.54 0.36 0.37 0.40 0.30 0.35 0.34 0.35 0.37 0.37 0.30 0.31 0.40 0.30 0.27 0.25 0.27 0.26 0.26 0.31 0.30 0.29 0.28 0.28 0.26 0.29 0.31 0.32 0.30 0.32 0.33 0.39 0.40 0.39 0.41 0.44 0.50 0.56 0.65
0.76 0.80 0.77 0.70 0.62 0.54 0.47 0.40 0.49 0.48 0.32 0.31 0.33 0.31 0.32 0.34 0.29 0.29 0.33 0.30 0.28 0.26 0.26 0.27 0.31 0.34 0.32 0.30 0.29 0.30 0.29 0.29 0.29 0.31 0.32 0.30 0.28 0.39 0.40 0.41 0.44 0.47 0.50 0.54 0.59
0.69 0.75 0.75 0.68 0.59 0.48 0.44 0.52 0.57 0.52 0.28 0.24 0.27 0.29 0.31 0.32 0.27 0.33 0.34 0.31 0.28 0.27 0.26 0.29 0.33 0.32 0.33 0.31 0.32 0.30 0.32 0.31 0.29 0.27 0.25 0.33 0.19 0.31 0.36 0.37 0.43 0.46 0.48 0.52 0.56
0.61 0.67 0.71 0.70 0.55 0.44 0.47 0.56 0.56 0.45 0.20 0.28 0.28 0.35 0.31 0.28 0.29 0.29 0.34 0.32 0.28 0.28 0.29 0.30 0.31 0.31 0.31 0.31 0.33 0.30 0.33 0.31 0.29 0.27 0.27 0.26 0.22 0.34 0.35 0.37 0.47 0.48 0.50 0.51 0.52
0.48 0.54 0.64 0.65 0.59 0.56 0.58 0.56 0.48 0.28 0.20 0.24 0.28 0.26 0.26 0.28 0.28 0.31 0.31 0.34 0.34 0.29 0.29 0.30 0.34 0.34 0.33 0.33 0.34 0.35 0.33 0.33 0.32 0.27 0.21 0.27 0.22 0.21 0.29 0.38 0.43 0.45 0.50 0.53 0.56
0.39 0.42 0.51 0.60 0.49 0.63 0.61 0.44 0.28 0.21 0.31 0.24 0.26 0.28 0.28 0.28 0.30 0.29 0.28 0.28 0.27 0.25 0.26 0.30 0.31 0.35 0.36 0.33 0.37 0.35 0.29 0.23 0.22 0.22 0.20 0.30 0.20 0.23 0.38 0.41 0.42 0.44 0.47 0.55 0.64
0.36 0.39 0.51 0.53 0.57 0.59 0.49 0.32 0.21 0.28 0.27 0.31 0.29 0.30 0.27 0.30 0.32 0.30 0.28 0.28 0.31 0.28 0.28 0.28 0.29 0.35 0.39 0.36 0.34 0.33 0.29 0.23 0.17 0.17 0.20 0.29 0.20 0.34 0.40 0.48 0.50 0.52 0.53 0.57 0.66
0.35 0.34 0.42 0.50 0.56 0.49 0.35 0.21 0.24 0.28 0.30 0.29 0.29 0.27 0.29 0.31 0.32 0.31 0.31 0.30 0.35 0.35 0.30 0.29 0.30 0.38 0.39 0.41 0.39 0.37 0.31 0.30 0.24 0.29 0.22 0.25 0.30 0.34 0.42 0.45 0.52 0.51 0.57 0.63 0.69
0.28 0.25 0.34 0.49 0.52 0.37 0.25 0.20 0.27 0.31 0.31 0.30 0.25 0.28 0.27 0.30 0.30 0.31 0.32 0.35 0.34 0.37 0.38 0.37 0.29 0.38 0.39 0.41 0.41 0.36 0.36 0.27 0.29 0.19 0.17 0.20 0.25 0.29 0.38 0.40 0.44 0.50 0.63 0.72 0.78
0.29 0.20 0.39 0.50 0.43 0.29 0.18 0.24 0.27 0.32 0.32 0.29 0.28 0.28 0.30 0.30 0.32 0.33 0.34 0.38 0.40 0.39 0.41 0.40 0.35 0.37 0.38 0.36 0.33 0.33 0.31 0.32 0.27 0.27 0.19 0.15 0.22 0.38 0.37 0.39 0.46 0.49 0.62 0.70 0.71
0.30 0.17 0.40 0.45 0.25 0.25 0.22 0.27 0.32 0.31 0.34 0.30 0.31 0.31 0.31 0.32 0.33 0.34 0.35 0.40 0.44 0.43 0.37 0.42 0.35 0.29 0.33 0.40 0.37 0.34 0.32 0.32 0.23 0.25 0.28 0.25 0.24 0.42 0.39 0.47 0.52 0.60 0.68 0.74 0.77
0.27 0.25 0.41 0.40 0.19 0.23 0.30 0.28 0.32 0.33 0.32 0.31 0.29 0.32 0.33 0.31 0.30 0.34 0.37 0.43 0.44 0.41 0.40 0.42 0.32 0.26 0.29 0.37 0.41 0.33 0.35 0.34 0.31 0.29 0.22 0.19 0.21 0.41 0.40 0.43 0.62 0.68 0.72 0.73 0.75
0.35 0.26 0.42 0.39 0.37 0.30 0.30 0.29 0.29 0.37 0.35 0.36 0.33 0.33 0.32 0.31 0.34 0.34 0.35 0.38 0.41 0.41 0.39 0.37 0.31 0.29 0.20 0.27 0.37 0.31 0.31 0.34 0.31 0.25 0.22 0.22 0.22 0.25 0.33 0.53 0.65 0.71 0.72 0.76 0.81
0.40 0.36 0.41 0.39 0.39 0.37 0.34 0.34 0.29 0.30 0.38 0.38 0.35 0.33 0.33 0.31 0.31 0.31 0.34 0.34 0.35 0.39 0.38 0.35 0.27 0.29 0.30 0.29 0.26 0.25 0.26 0.27 0.25 0.26 0.23 0.24 0.23 0.30 0.48 0.65 0.71 0.74 0.79 0.79 0.80
0.37 0.38 0.43 0.38 0.44 0.40 0.39 0.35 0.31 0.36 0.35 0.36 0.35 0.36 0.35 0.33 0.36 0.34 0.34 0.34 0.34 0.42 0.37 0.39 0.25 0.27 0.24 0.25 0.25 0.23 0.24 0.24 0.22 0.23 0.24 0.24 0.30 0.65 0.72 0.73 0.76 0.76 0.78 0.77 0.79
0.51 0.51 0.39 0.35 0.34 0.31 0.36 0.42 0.38 0.40 0.42 0.43 0.40 0.38 0.35 0.40 0.43 0.43 0.42 0.43 0.41 0.37 0.36 0.32 0.23 0.23 0.18 0.24 0.23 0.18 0.23 0.24 0.25 0.30 0.36 0.40 0.53 0.62 0.62 0.69 0.73 0.75 0.80 0.78 0.82

GFSSW_prec_pwat_117.txt.gz
Precipitable_Water
0.75 0.71 0.67 0.64 0.60 0.56 0.55 0.53 0.51 0.50 0.48 0.47 0.44 0.42 0.40 0.41 0.39 0.33 0.23 0.31 0.32 0.37 0.65 0.58 0.47 0.53 0.67 0.71 0.71 0.72 0.52 0.45 0.44 0.45 0.47 0.54 0.55 0.63 0.60 0.55 0.54 0.74 0.83 1.10 1.10
0.81 0.77 0.73 0.68 0.61 0.59 0.58 0.57 0.56 0.55 0.54 0.54 0.50 0.45 0.42 0.39 0.29 0.26 0.35 0.31 0.31 0.36 0.45 0.46 0.36 0.42 0.51 0.51 0.59 0.63 0.54 0.41 0.45 0.43 0.39 0.41 0.46 0.50 0.50 0.52 0.46 0.47 0.94 1.11 1.03
0.84 0.82 0.77 0.72 0.62 0.63 0.61 0.60 0.59 0.59 0.59 0.59 0.55 0.50 0.44 0.41 0.28 0.33 0.39 0.32 0.30 0.37 0.48 0.46 0.41 0.37 0.40 0.45 0.58 0.61 0.46 0.49 0.44 0.38 0.33 0.31 0.36 0.38 0.36 0.38 0.41 0.38 0.63 1.05 1.04
0.85 0.83 0.80 0.75 0.63 0.64 0.61 0.60 0.57 0.57 0.58 0.59 0.59 0.54 0.45 0.43 0.29 0.48 0.42 0.38 0.33 0.45 0.48 0.39 0.35 0.32 0.34 0.43 0.56 0.46 0.50 0.39 0.36 0.31 0.28 0.27 0.30 0.28 0.31 0.37 0.38 0.43 0.42 1.02 1.06
0.86 0.83 0.80 0.77 0.63 0.62 0.61 0.56 0.52 0.51 0.51 0.54 0.55 0.54 0.40 0.32 0.30 0.54 0.54 0.44 0.41 0.51 0.38 0.33 0.32 0.33 0.35 0.41 0.44 0.38 0.39 0.34 0.31 0.29 0.28 0.28 0.29 0.28 0.36 0.44 0.45 0.58 0.55 1.00 1.10
0.87 0.83 0.80 0.76 0.67 0.61 0.60 0.52 0.53 0.50 0.48 0.48 0.51 0.49 0.38 0.25 0.46 0.58 0.50 0.46 0.46 0.41 0.40 0.34 0.32 0.35 0.44 0.44 0.37 0.35 0.29 0.27 0.29 0.30 0.30 0.31 0.29 0.37 0.44 0.46 0.52 0.69 0.74 0.93 1.09
0.86 0.83 0.79 0.75 0.71 0.61 0.57 0.53 0.51 0.49 0.46 0.44 0.45 0.46 0.38 0.31 0.54 0.54 0.55 0.54 0.52 0.42 0.36 0.36 0.41 0.46 0.53 0.38 0.38 0.29 0.27 0.30 0.30 0.30 0.31 0.32 0.33 0.39 0.47 0.56 0.55 0.67 0.80 0.88 1.01
0.83 0.81 0.78 0.74 0.70 0.61 0.55 0.55 0.54 0.52 0.53 0.54 0.48 0.52 0.30 0.41 0.57 0.47 0.50 0.47 0.49 0.48 0.46 0.45 0.63 0.58 0.44 0.37 0.33 0.30 0.29 0.27 0.32 0.29 0.30 0.32 0.37 0.44 0.49 0.63 0.67 0.69 0.85 0.93 1.04
0.78 0.78 0.76 0.72 0.68 0.60 0.55 0.56 0.57 0.56 0.57 0.58 0.52 0.56 0.28 0.43 0.42 0.47 0.45 0.48 0.48 0.48 0.47 0.46 0.44 0.39 0.36 0.30 0.29 0.29 0.28 0.28 0.28 0.30 0.28 0.28 0.34 0.44 0.51 0.62 0.69 0.74 0.72 0.86 1.05
0.72 0.72 0.73 0.71 0.67 0.59 0.55 0.56 0.61 0.57 0.59 0.59 0.54 0.46 0.39 0.36 0.38 0.46 0.47 0.49 0.46 0.45 0.40 0.38 0.37 0.33 0.32 0.29 0.27 0.30 0.26 0.26 0.27 0.31 0.29 0.30 0.36 0.46 0.45 0.51 0.60 0.65 0.73 0.82 0.87
0.67 0.68 0.70 0.69 0.65 0.56 0.56 0.58 0.48 0.44 0.40 0.35 0.37 0.43 0.38 0.41 0.38 0.37 0.46 0.42 0.35 0.34 0.31 0.32 0.28 0.29 0.32 0.31 0.30 0.27 0.26 0.26 0.30 0.31 0.27 0.31 0.35 0.39 0.42 0.43 0.48 0.58 0.63 0.71 0.78
0.63 0.65 0.66 0.67 0.65 0.57 0.58 0.38 0.37 0.45 0.34 0.35 0.35 0.37 0.40 0.36 0.30 0.34 0.40 0.35 0.30 0.27 0.28 0.26 0.27 0.33 0.32 0.29 0.27 0.28 0.28 0.31 0.35 0.34 0.30 0.33 0.35 0.45 0.46 0.42 0.45 0.51 0.58 0.63 0.70
0.57 0.60 0.63 0.65 0.66 0.58 0.47 0.41 0.50 0.49 0.37 0.31 0.32 0.33 0.33 0.33 0.31 0.29 0.35 0.33 0.29 0.28 0.26 0.29 0.34 0.34 0.30 0.31 0.29 0.31 0.30 0.33 0.31 0.34 0.33 0.33 0.33 0.41 0.52 0.49 0.49 0.55 0.59 0.67 0.64
0.51 0.52 0.57 0.63 0.63 0.50 0.47 0.50 0.56 0.52 0.29 0.26 0.26 0.30 0.31 0.32 0.27 0.34 0.34 0.32 0.28 0.29 0.28 0.29 0.34 0.32 0.32 0.31 0.30 0.33 0.37 0.31 0.29 0.29 0.27 0.38 0.27 0.41 0.49 0.45 0.47 0.53 0.57 0.64 0.63
0.44 0.45 0.49 0.66 0.55 0.50 0.48 0.54 0.55 0.47 0.25 0.32 0.27 0.34 0.30 0.29 0.30 0.28 0.33 0.31 0.29 0.28 0.28 0.31 0.30 0.30 0.29 0.33 0.32 0.31 0.33 0.29 0.30 0.28 0.27 0.29 0.28 0.41 0.46 0.41 0.49 0.56 0.58 0.62 0.58
0.38 0.38 0.44 0.60 0.63 0.57 0.60 0.56 0.49 0.27 0.23 0.28 0.28 0.25 0.26 0.28 0.28 0.31 0.29 0.33 0.34 0.29 0.29 0.31 0.34 0.31 0.34 0.34 0.32 0.31 0.31 0.33 0.34 0.33 0.25 0.30 0.28 0.28 0.39 0.44 0.54 0.53 0.57 0.60 0.63
0.34 0.34 0.40 0.51 0.52 0.58 0.60 0.48 0.31 0.22 0.40 0.28 0.25 0.26 0.25 0.26 0.26 0.28 0.27 0.27 0.27 0.25 0.29 0.31 0.31 0.34 0.33 0.31 0.37 0.37 0.32 0.25 0.27 0.28 0.29 0.39 0.31 0.25 0.42 0.48 0.47 0.50 0.54 0.58 0.65
0.31 0.32 0.41 0.47 0.52 0.53 0.51 0.35 0.24 0.35 0.33 0.32 0.29 0.28 0.26 0.30 0.30 0.31 0.28 0.27 0.32 0.31 0.28 0.29 0.32 0.39 0.40 0.35 0.35 0.34 0.33 0.25 0.22 0.21 0.24 0.36 0.25 0.40 0.44 0.51 0.53 0.52 0.57 0.59 0.69
0.30 0.33 0.38 0.52 0.50 0.48 0.35 0.26 0.26 0.33 0.35 0.28 0.28 0.26 0.27 0.32 0.31 0.32 0.29 0.29 0.34 0.34 0.29 0.33 0.34 0.43 0.40 0.38 0.37 0.41 0.32 0.38 0.22 0.22 0.23 0.28 0.37 0.42 0.48 0.48 0.53 0.54 0.53 0.66 0.79
0.28 0.28 0.29 0.49 0.46 0.38 0.26 0.21 0.31 0.37 0.32 0.28 0.24 0.28 0.28 0.33 0.30 0.31 0.33 0.35 0.35 0.37 0.38 0.37 0.31 0.41 0.40 0.40 0.39 0.36 0.40 0.25 0.34 0.24 0.22 0.26 0.27 0.32 0.46 0.49 0.52 0.51 0.51 0.57 0.77
0.34 0.24 0.51 0.45 0.40 0.28 0.20 0.24 0.29 0.34 0.30 0.26 0.26 0.30 0.30 0.33 0.34 0.34 0.36 0.41 0.39 0.38 0.38 0.37 0.38 0.37 0.43 0.36 0.35 0.42 0.35 0.37 0.32 0.26 0.23 0.23 0.28 0.39 0.40 0.45 0.47 0.51 0.54 0.69 0.75
0.32 0.22 0.50 0.36 0.27 0.28 0.24 0.28 0.34 0.28 0.31 0.27 0.29 0.32 0.33 0.34 0.33 0.31 0.35 0.41 0.46 0.41 0.36 0.43 0.37 0.33 0.38 0.49 0.45 0.38 0.29 0.30 0.27 0.25 0.32 0.29 0.23 0.43 0.44 0.45 0.45 0.51 0.70 0.77 0.80
0.29 0.25 0.34 0.30 0.19 0.24 0.29 0.30 0.28 0.29 0.30 0.31 0.27 0.30 0.34 0.34 0.32 0.37 0.39 0.49 0.46 0.38 0.41 0.44 0.34 0.26 0.30 0.37 0.45 0.41 0.39 0.34 0.35 0.33 0.26 0.24 0.26 0.40 0.41 0.41 0.46 0.67 0.82 0.82 0.78
0.37 0.28 0.45 0.36 0.31 0.34 0.35 0.35 0.32 0.35 0.34 0.34 0.32 0.34 0.32 0.30 0.37 0.38 0.36 0.44 0.41 0.40 0.42 0.39 0.29 0.27 0.24 0.33 0.38 0.38 0.40 0.37 0.32 0.27 0.27 0.27 0.29 0.33 0.36 0.36 0.53 0.76 0.79 0.77 0.84
0.46 0.41 0.48 0.42 0.41 0.37 0.36 0.37 0.35 0.35 0.37 0.40 0.34 0.32 0.32 0.30 0.33 0.34 0.38 0.42 0.41 0.42 0.35 0.33 0.28 0.33 0.33 0.32 0.29 0.27 0.25 0.24 0.24 0.29 0.26 0.25 0.26 0.30 0.34 0.56 0.69 0.76 0.81 0.80 0.85
0.41 0.48 0.52 0.34 0.47 0.44 0.39 0.32 0.33 0.33 0.42 0.39 0.35 0.41 0.37 0.35 0.38 0.38 0.39 0.39 0.39 0.44 0.40 0.42 0.33 0.33 0.26 0.26 0.27 0.23 0.22 0.23 0.24 0.25 0.24 0.24 0.25 0.40 0.71 0.73 0.73 0.76 0.76 0.77 0.83
0.57 0.50 0.37 0.32 0.36 0.32 0.32 0.43 0.42 0.41 0.47 0.44 0.48 0.43 0.41 0.41 0.46 0.49 0.47 0.45 0.46 0.43 0.43 0.42 0.38 0.32 0.21 0.26 0.25 0.21 0.24 0.25 0.26 0.27 0.26 0.25 0.42 0.66 0.69 0.68 0.68 0.72 0.75 0.81 0.86

GFSSW_prec_pwat_123.txt.gz
Precipitable_Water
0.83 0.80 0.77 0.73 0.64 0.60 0.59 0.57 0.56 0.54 0.51 0.48 0.45 0.45 0.42 0.39 0.34 0.27 0.14 0.19 0.30 0.32 0.34 0.45 0.47 0.46 0.60 0.73 0.86 0.89 0.69 0.56 0.44 0.43 0.39 0.41 0.40 0.50 0.59 0.76 0.90 0.90 0.80 0.93 1.16
0.81 0.78 0.76 0.73 0.67 0.63 0.60 0.59 0.58 0.56 0.55 0.54 0.52 0.49 0.45 0.41 0.25 0.16 0.22 0.31 0.33 0.35 0.26 0.35 0.44 0.45 0.45 0.52 0.62 0.65 0.60 0.50 0.46 0.39 0.33 0.31 0.33 0.38 0.41 0.72 0.83 0.90 1.00 1.06 1.17
0.77 0.74 0.71 0.71 0.69 0.64 0.61 0.58 0.54 0.52 0.53 0.57 0.58 0.54 0.47 0.43 0.31 0.33 0.42 0.36 0.34 0.29 0.25 0.43 0.50 0.45 0.38 0.43 0.47 0.52 0.49 0.50 0.38 0.33 0.29 0.27 0.30 0.35 0.38 0.42 0.70 0.71 0.84 0.96 1.06
0.70 0.68 0.66 0.66 0.67 0.64 0.60 0.56 0.53 0.51 0.50 0.54 0.57 0.57 0.49 0.50 0.29 0.45 0.39 0.36 0.33 0.26 0.24 0.39 0.40 0.39 0.36 0.37 0.44 0.47 0.44 0.44 0.35 0.30 0.27 0.26 0.28 0.35 0.36 0.37 0.81 0.89 0.89 0.92 1.01
0.65 0.63 0.62 0.61 0.63 0.63 0.57 0.56 0.51 0.50 0.48 0.50 0.55 0.57 0.39 0.31 0.40 0.48 0.39 0.36 0.28 0.26 0.28 0.41 0.38 0.35 0.32 0.34 0.42 0.42 0.38 0.35 0.31 0.28 0.28 0.31 0.33 0.36 0.40 0.55 0.90 1.04 0.98 0.96 1.06
0.62 0.61 0.59 0.57 0.59 0.63 0.57 0.54 0.51 0.50 0.47 0.49 0.53 0.55 0.31 0.37 0.59 0.54 0.40 0.33 0.26 0.26 0.32 0.41 0.37 0.36 0.34 0.37 0.42 0.43 0.37 0.29 0.29 0.31 0.32 0.30 0.35 0.45 0.48 0.63 0.76 1.07 1.11 1.13 1.11
0.60 0.59 0.58 0.56 0.55 0.61 0.57 0.54 0.52 0.54 0.50 0.46 0.52 0.47 0.41 0.41 0.57 0.49 0.39 0.34 0.33 0.34 0.39 0.40 0.36 0.32 0.36 0.40 0.50 0.38 0.29 0.31 0.31 0.33 0.33 0.33 0.39 0.43 0.58 0.70 0.74 0.85 1.12 1.27 1.32
0.59 0.58 0.57 0.55 0.53 0.58 0.56 0.54 0.53 0.57 0.54 0.48 0.46 0.44 0.40 0.49 0.55 0.45 0.50 0.47 0.47 0.46 0.45 0.44 0.45 0.33 0.36 0.50 0.45 0.34 0.34 0.29 0.32 0.34 0.35 0.38 0.38 0.52 0.75 0.74 0.69 0.79 0.89 1.11 1.40
0.57 0.56 0.55 0.54 0.51 0.54 0.55 0.55 0.54 0.57 0.56 0.53 0.48 0.54 0.45 0.44 0.41 0.45 0.52 0.46 0.46 0.45 0.43 0.43 0.42 0.37 0.43 0.39 0.35 0.37 0.32 0.33 0.34 0.35 0.32 0.33 0.40 0.56 0.66 0.67 0.65 0.73 0.98 1.01 1.14
0.54 0.53 0.53 0.52 0.50 0.53 0.56 0.62 0.62 0.56 0.62 0.54 0.59 0.47 0.60 0.35 0.39 0.43 0.46 0.47 0.44 0.45 0.38 0.38 0.31 0.31 0.36 0.34 0.27 0.31 0.31 0.35 0.32 0.33 0.30 0.31 0.40 0.46 0.61 0.63 0.70 0.80 0.86 1.00 0.93
0.50 0.49 0.50 0.50 0.50 0.52 0.58 0.60 0.48 0.50 0.42 0.32 0.42 0.44 0.40 0.43 0.42 0.42 0.43 0.41 0.43 0.37 0.31 0.37 0.32 0.30 0.35 0.36 0.31 0.34 0.32 0.30 0.33 0.34 0.31 0.29 0.42 0.43 0.52 0.60 0.67 0.78 0.82 0.78 0.87
0.46 0.46 0.46 0.47 0.50 0.54 0.61 0.41 0.38 0.45 0.34 0.38 0.40 0.42 0.42 0.39 0.28 0.33 0.43 0.34 0.33 0.25 0.31 0.32 0.30 0.33 0.36 0.36 0.32 0.27 0.30 0.31 0.34 0.36 0.35 0.31 0.32 0.40 0.45 0.55 0.64 0.73 0.82 0.83 0.79
0.43 0.42 0.42 0.44 0.53 0.64 0.54 0.43 0.49 0.48 0.31 0.30 0.37 0.34 0.38 0.36 0.29 0.29 0.35 0.37 0.32 0.28 0.30 0.28 0.30 0.37 0.35 0.30 0.28 0.32 0.30 0.32 0.36 0.37 0.34 0.34 0.33 0.41 0.48 0.54 0.65 0.74 0.81 0.82 0.79
0.39 0.39 0.39 0.40 0.55 0.57 0.52 0.53 0.55 0.50 0.23 0.28 0.30 0.28 0.33 0.36 0.27 0.34 0.35 0.34 0.30 0.27 0.30 0.30 0.34 0.34 0.32 0.30 0.34 0.30 0.37 0.36 0.34 0.32 0.24 0.32 0.24 0.39 0.46 0.51 0.59 0.66 0.70 0.75 0.81
0.36 0.36 0.36 0.41 0.40 0.52 0.57 0.56 0.56 0.46 0.24 0.38 0.35 0.37 0.33 0.29 0.30 0.29 0.34 0.32 0.27 0.27 0.30 0.27 0.32 0.31 0.28 0.32 0.35 0.32 0.34 0.33 0.32 0.24 0.24 0.25 0.28 0.37 0.48 0.49 0.58 0.66 0.67 0.73 0.78
0.33 0.33 0.36 0.34 0.38 0.60 0.66 0.59 0.54 0.27 0.18 0.28 0.30 0.30 0.26 0.28 0.28 0.30 0.29 0.32 0.31 0.28 0.30 0.30 0.34 0.35 0.32 0.32 0.32 0.31 0.29 0.29 0.32 0.35 0.30 0.38 0.39 0.42 0.47 0.51 0.61 0.67 0.71 0.73 0.78
0.31 0.29 0.33 0.32 0.38 0.54 0.57 0.51 0.29 0.22 0.38 0.31 0.31 0.30 0.26 0.23 0.27 0.27 0.26 0.24 0.22 0.22 0.25 0.31 0.33 0.35 0.37 0.33 0.35 0.32 0.33 0.24 0.23 0.31 0.30 0.46 0.43 0.47 0.57 0.62 0.63 0.65 0.68 0.70 0.82
0.30 0.27 0.28 0.27 0.31 0.41 0.49 0.38 0.22 0.32 0.37 0.41 0.35 0.29 0.22 0.25 0.25 0.27 0.26 0.24 0.27 0.27 0.26 0.26 0.28 0.36 0.39 0.37 0.35 0.35 0.33 0.24 0.21 0.29 0.33 0.44 0.38 0.48 0.60 0.68 0.70 0.72 0.69 0.69 0.77
0.30 0.22 0.24 0.30 0.49 0.48 0.37 0.26 0.24 0.35 0.39 0.39 0.36 0.30 0.25 0.27 0.27 0.28 0.28 0.27 0.29 0.31 0.27 0.27 0.33 0.41 0.43 0.43 0.40 0.37 0.28 0.39 0.28 0.32 0.30 0.34 0.43 0.55 0.61 0.61 0.65 0.67 0.66 0.67 0.75
0.24 0.25 0.28 0.32 0.49 0.40 0.29 0.23 0.26 0.37 0.37 0.41 0.31 0.30 0.25 0.28 0.28 0.30 0.31 0.36 0.34 0.36 0.38 0.35 0.29 0.42 0.45 0.45 0.42 0.38 0.38 0.25 0.27 0.18 0.20 0.32 0.40 0.43 0.53 0.57 0.62 0.61 0.62 0.67 0.71
0.26 0.29 0.42 0.42 0.44 0.28 0.20 0.20 0.22 0.34 0.37 0.35 0.35 0.30 0.29 0.29 0.33 0.32 0.33 0.37 0.37 0.38 0.40 0.37 0.33 0.31 0.39 0.38 0.37 0.40 0.36 0.39 0.36 0.31 0.26 0.25 0.38 0.58 0.56 0.59 0.58 0.62 0.69 0.72 0.74
0.27 0.25 0.50 0.52 0.29 0.24 0.18 0.20 0.29 0.32 0.40 0.33 0.29 0.32 0.26 0.31 0.34 0.36 0.38 0.42 0.47 0.44 0.38 0.41 0.36 0.28 0.30 0.44 0.48 0.46 0.41 0.43 0.32 0.26 0.30 0.32 0.34 0.54 0.51 0.52 0.52 0.58 0.66 0.69 0.73
0.21 0.29 0.49 0.49 0.26 0.20 0.24 0.26 0.30 0.31 0.33 0.31 0.26 0.25 0.24 0.26 0.28 0.36 0.41 0.48 0.48 0.48 0.44 0.45 0.37 0.28 0.25 0.31 0.40 0.40 0.42 0.44 0.44 0.43 0.30 0.26 0.30 0.51 0.53 0.51 0.56 0.58 0.66 0.71 0.76
0.28 0.28 0.36 0.31 0.28 0.23 0.23 0.25 0.34 0.34 0.32 0.31 0.33 0.33 0.29 0.25 0.30 0.32 0.40 0.46 0.48 0.48 0.50 0.48 0.39 0.35 0.27 0.31 0.36 0.36 0.42 0.48 0.46 0.34 0.32 0.32 0.35 0.35 0.48 0.53 0.63 0.71 0.77 0.81 0.83
0.45 0.41 0.49 0.40 0.38 0.39 0.40 0.31 0.34 0.33 0.38 0.38 0.30 0.30 0.32 0.29 0.30 0.30 0.35 0.45 0.48 0.48 0.45 0.42 0.33 0.34 0.33 0.30 0.30 0.35 0.37 0.37 0.34 0.34 0.29 0.30 0.30 0.33 0.47 0.55 0.64 0.71 0.74 0.76 0.76
0.51 0.43 0.49 0.49 0.48 0.40 0.41 0.38 0.37 0.38 0.42 0.41 0.38 0.37 0.34 0.32 0.35 0.35 0.39 0.42 0.40 0.45 0.44 0.44 0.34 0.34 0.27 0.30 0.30 0.27 0.30 0.33 0.32 0.30 0.31 0.30 0.26 0.49 0.57 0.61 0.62 0.64 0.66 0.67 0.75
0.59 0.59 0.51 0.44 0.43 0.39 0.37 0.41 0.35 0.36 0.39 0.40 0.44 0.47 0.47 0.48 0.52 0.50 0.51 0.52 0.54 0.48 0.46 0.46 0.44 0.39 0.30 0.39 0.37 0.28 0.28 0.26 0.27 0.28 0.29 0.28 0.45 0.58 0.56 0.58 0.63 0.68 0.68 0.71 0.76